| time (UTC) | temp C | wind direction | speed KPH | gust KPH | rain 1hr cm | rain 24hr cm | rain mn cm | humidity % | barometer mb |
| 20260906150702 | 29 | 333 | 6.4 | 8.0 | 0.00 | 1.65 | 0.00 | 79 | 1013.2 |
| 20260906150601 | 29 | 311 | 6.4 | 8.0 | 0.00 | 1.65 | 0.00 | 79 | 1013.2 |
| 20260906150503 | 29 | 324 | 3.2 | 8.0 | 0.00 | 1.65 | 0.00 | 79 | 1013.2 |
| 20260906150401 | 29 | 345 | 3.2 | 8.0 | 0.00 | 1.65 | 0.00 | 79 | 1013.3 |
| 20260906150300 | 29 | 347 | 8.0 | 11.3 | 0.00 | 1.65 | 0.00 | 79 | 1013.3 |
| 20260906150201 | 29 | 324 | 4.8 | 11.3 | 0.00 | 1.65 | 0.00 | 78 | 1013.3 |
| 20260906150010 | 29 | 321 | 6.4 | 11.3 | 0.00 | 1.65 | 0.00 | 78 | 1013.3 |
| 20260906145900 | 29 | 327 | 6.4 | 11.3 | 0.00 | 1.65 | 0.00 | 79 | 1013.3 |
| 20260906145800 | 29 | 281 | 8.0 | 11.3 | 0.00 | 1.65 | 0.00 | 79 | 1013.4 |
| 20260906145559 | 29 | 288 | 6.4 | 11.3 | 0.00 | 1.65 | 0.00 | 79 | 1013.4 |
| 20260906145300 | 29 | 327 | 6.4 | 9.7 | 0.00 | 1.65 | 0.00 | 79 | 1013.4 |
| 20260906145200 | 29 | 322 | 4.8 | 9.7 | 0.00 | 1.65 | 0.00 | 79 | 1013.4 |
| 20260906145100 | 29 | 300 | 3.2 | 9.7 | 0.00 | 1.65 | 0.00 | 79 | 1013.3 |
| 20260906145004 | 29 | 339 | 6.4 | 9.7 | 0.00 | 1.65 | 0.00 | 80 | 1013.3 |
| 20260906144859 | 28 | 352 | 8.0 | 9.7 | 0.00 | 1.65 | 0.00 | 80 | 1013.3 |
| 20260906144800 | 28 | 336 | 6.4 | 9.7 | 0.00 | 1.65 | 0.00 | 80 | 1013.4 |
| 20260906144600 | 28 | 295 | 4.8 | 9.7 | 0.00 | 1.65 | 0.00 | 81 | 1013.2 |
| 20260906144503 | 28 | 296 | 4.8 | 8.0 | 0.00 | 1.65 | 0.00 | 81 | 1013.2 |
| 20260906144400 | 28 | 336 | 4.8 | 8.0 | 0.00 | 1.65 | 0.00 | 81 | 1013.1 |
| 20260906144301 | 28 | 326 | 6.4 | 8.0 | 0.00 | 1.65 | 0.00 | 81 | 1013.1 |
| 20260906144200 | 28 | 330 | 4.8 | 8.0 | 0.00 | 1.65 | 0.00 | 81 | 1013.1 |
| 20260906144003 | 28 | 352 | 8.0 | 8.0 | 0.00 | 1.65 | 0.00 | 81 | 1013.1 |
| 20260906143900 | 28 | 338 | 6.4 | 8.0 | 0.00 | 1.65 | 0.00 | 82 | 1013.2 |
| 20260906143800 | 28 | 325 | 8.0 | 9.7 | 0.00 | 1.65 | 0.00 | 82 | 1013.2 |
| 20260906143701 | 28 | 322 | 6.4 | 9.7 | 0.00 | 1.65 | 0.00 | 82 | 1013.2 |
| 20260906143600 | 28 | 278 | 4.8 | 9.7 | 0.00 | 1.65 | 0.00 | 82 | 1013.2 |
| 20260906143503 | 28 | 272 | 3.2 | 9.7 | 0.00 | 1.65 | 0.00 | 82 | 1013.2 |
| 20260906143400 | 28 | 275 | 6.4 | 9.7 | 0.00 | 1.65 | 0.00 | 82 | 1013.2 |
| 20260906143201 | 28 | 305 | 6.4 | 9.7 | 0.00 | 1.65 | 0.00 | 83 | 1013.2 |
| 20260906143100 | 28 | 304 | 6.4 | 9.7 | 0.00 | 1.65 | 0.00 | 83 | 1013.2 |
| 20260906143003 | 28 | 345 | 6.4 | 9.7 | 0.00 | 1.65 | 0.00 | 83 | 1013.2 |
| 20260906142900 | 28 | 328 | 6.4 | 9.7 | 0.00 | 1.65 | 0.00 | 83 | 1013.2 |
| 20260906142801 | 28 | 345 | 8.0 | 9.7 | 0.00 | 1.65 | 0.00 | 83 | 1013.3 |
| 20260906142700 | 28 | 347 | 6.4 | 9.7 | 0.00 | 1.65 | 0.00 | 83 | 1013.3 |
| 20260906142600 | 28 | 356 | 9.7 | 9.7 | 0.00 | 1.65 | 0.00 | 83 | 1013.3 |
| 20260906142503 | 28 | 338 | 6.4 | 9.7 | 0.00 | 1.65 | 0.00 | 83 | 1013.3 |
| 20260906142400 | 28 | 319 | 6.4 | 9.7 | 0.00 | 1.65 | 0.00 | 83 | 1013.3 |
| 20260906142259 | 28 | 311 | 6.4 | 9.7 | 0.00 | 1.65 | 0.00 | 83 | 1013.3 |
| 20260906142200 | 28 | 329 | 6.4 | 9.7 | 0.00 | 1.65 | 0.00 | 83 | 1013.3 |
| 20260906142100 | 28 | 322 | 6.4 | 9.7 | 0.00 | 1.65 | 0.00 | 83 | 1013.4 |
| 20260906142003 | 28 | 313 | 8.0 | 9.7 | 0.00 | 1.65 | 0.00 | 84 | 1013.4 |
| 20260906141901 | 28 | 312 | 4.8 | 9.7 | 0.00 | 1.65 | 0.00 | 83 | 1013.3 |
| 20260906141759 | 28 | 320 | 4.8 | 9.7 | 0.00 | 1.65 | 0.00 | 84 | 1013.4 |
| 20260906141559 | 27 | 321 | 4.8 | 9.7 | 0.00 | 1.65 | 0.00 | 83 | 1013.3 |
| 20260906141503 | 28 | 319 | 6.4 | 8.0 | 0.00 | 1.65 | 0.00 | 84 | 1013.3 |
| 20260906141300 | 28 | 322 | 6.4 | 8.0 | 0.00 | 1.65 | 0.00 | 84 | 1013.3 |
| 20260906141200 | 28 | 319 | 6.4 | 8.0 | 0.00 | 1.65 | 0.00 | 84 | 1013.3 |
| 20260906141059 | 27 | 323 | 4.8 | 8.0 | 0.00 | 1.65 | 0.00 | 85 | 1013.2 |
| 20260906141003 | 27 | 327 | 4.8 | 8.0 | 0.00 | 1.65 | 0.00 | 85 | 1013.2 |
| 20260906140800 | 27 | 327 | 6.4 | 8.0 | 0.00 | 1.65 | 0.00 | 84 | 1013.2 |
| 20260906140700 | 27 | 339 | 6.4 | 8.0 | 0.00 | 1.65 | 0.00 | 85 | 1013.3 |
| 20260906140559 | 27 | 316 | 3.2 | 8.0 | 0.00 | 1.65 | 0.00 | 85 | 1013.2 |
| 20260906140502 | 27 | 330 | 6.4 | 8.0 | 0.00 | 1.65 | 0.00 | 85 | 1013.2 |
| 20260906140400 | 27 | 302 | 4.8 | 8.0 | 0.00 | 1.65 | 0.00 | 86 | 1013.2 |
| 20260906140300 | 27 | 317 | 6.4 | 8.0 | 0.00 | 1.65 | 0.00 | 85 | 1013.1 |
| 20260906140159 | 27 | 326 | 4.8 | 8.0 | 0.00 | 1.65 | 0.00 | 85 | 1013.2 |
| 20260906140006 | 27 | 311 | 4.8 | 8.0 | 0.00 | 1.65 | 0.00 | 86 | 1013.2 |
| 20260906135901 | 27 | 324 | 4.8 | 6.4 | 0.00 | 1.65 | 0.00 | 86 | 1013.2 |
| 20260906135801 | 27 | 326 | 4.8 | 6.4 | 0.00 | 1.65 | 0.00 | 86 | 1013.1 |
| 20260906135601 | 27 | 329 | 4.8 | 6.4 | 0.00 | 1.65 | 0.00 | 86 | 1013.1 |
| 20260906135504 | 27 | 357 | 0.0 | 6.4 | 0.00 | 1.65 | 0.00 | 87 | 1013.2 |
| 20260906135401 | 27 | 329 | 3.2 | 6.4 | 0.00 | 1.65 | 0.00 | 87 | 1013.2 |
| 20260906135300 | 27 | 331 | 3.2 | 6.4 | 0.00 | 1.65 | 0.00 | 87 | 1013.1 |
| 20260906135201 | 27 | 299 | 1.6 | 6.4 | 0.00 | 1.65 | 0.00 | 87 | 1013.1 |
| 20260906135101 | 27 | 356 | 4.8 | 6.4 | 0.00 | 1.65 | 0.00 | 87 | 1013.2 |
| 20260906135003 | 27 | 323 | 3.2 | 6.4 | 0.00 | 1.65 | 0.00 | 88 | 1013.2 |
| 20260906134900 | 27 | 307 | 4.8 | 6.4 | 0.00 | 1.65 | 0.00 | 88 | 1013.2 |
| 20260906134801 | 27 | 293 | 3.2 | 6.4 | 0.00 | 1.65 | 0.00 | 88 | 1013.2 |
| 20260906134601 | 27 | 308 | 3.2 | 6.4 | 0.00 | 1.65 | 0.00 | 89 | 1013.2 |
| 20260906134504 | 26 | 295 | 4.8 | 6.4 | 0.00 | 1.65 | 0.00 | 89 | 1013.2 |
| 20260906134402 | 26 | 258 | 3.2 | 6.4 | 0.00 | 1.65 | 0.00 | 88 | 1013.2 |
| 20260906134301 | 26 | 312 | 4.8 | 6.4 | 0.00 | 1.65 | 0.00 | 88 | 1013.2 |
| 20260906134201 | 26 | 282 | 3.2 | 6.4 | 0.00 | 1.65 | 0.00 | 88 | 1013.2 |
| 20260906134101 | 26 | 331 | 0.0 | 6.4 | 0.00 | 1.65 | 0.00 | 89 | 1013.2 |
| 20260906134004 | 26 | 305 | 3.2 | 6.4 | 0.00 | 1.65 | 0.00 | 89 | 1013.2 |
| 20260906133901 | 26 | 304 | 0.0 | 6.4 | 0.00 | 1.65 | 0.00 | 89 | 1013.3 |
| 20260906133800 | 26 | 340 | 3.2 | 6.4 | 0.00 | 1.65 | 0.00 | 89 | 1013.3 |
| 20260906133701 | 26 | 349 | 6.4 | 6.4 | 0.00 | 1.65 | 0.00 | 89 | 1013.3 |
| 20260906133402 | 26 | 25 | 0.0 | 6.4 | 0.00 | 1.65 | 0.00 | 89 | 1013.4 |
| 20260906133300 | 26 | 317 | 0.0 | 6.4 | 0.00 | 1.65 | 0.00 | 90 | 1013.3 |
| 20260906133202 | 26 | 294 | 0.0 | 6.4 | 0.00 | 1.65 | 0.00 | 90 | 1013.3 |
| 20260906133102 | 26 | 286 | 3.2 | 6.4 | 0.00 | 1.65 | 0.00 | 90 | 1013.3 |
| 20260906133004 | 26 | 298 | 3.2 | 6.4 | 0.00 | 1.65 | 0.00 | 90 | 1013.4 |
| 20260906132800 | 26 | 293 | 3.2 | 6.4 | 0.00 | 1.65 | 0.00 | 90 | 1013.4 |
| 20260906132701 | 26 | 297 | 4.8 | 6.4 | 0.00 | 1.65 | 0.00 | 90 | 1013.4 |
| 20260906132601 | 26 | 282 | 4.8 | 6.4 | 0.00 | 1.65 | 0.00 | 90 | 1013.4 |
| 20260906132306 | 26 | 294 | 3.2 | 6.4 | 0.00 | 1.65 | 0.00 | 91 | 1013.5 |
| 20260906132201 | 26 | 287 | 4.8 | 6.4 | 0.00 | 1.65 | 0.00 | 91 | 1013.5 |
| 20260906132101 | 26 | 274 | 4.8 | 6.4 | 0.00 | 1.65 | 0.00 | 91 | 1013.5 |
| 20260906132003 | 26 | 247 | 3.2 | 6.4 | 0.00 | 1.65 | 0.00 | 91 | 1013.4 |
| 20260906131902 | 26 | 275 | 3.2 | 6.4 | 0.00 | 1.65 | 0.00 | 91 | 1013.4 |
| 20260906131700 | 26 | 265 | 0.0 | 6.4 | 0.00 | 1.65 | 0.00 | 91 | 1013.5 |
| 20260906131503 | 26 | 288 | 4.8 | 6.4 | 0.00 | 1.65 | 0.00 | 92 | 1013.4 |
| 20260906131302 | 26 | 282 | 3.2 | 6.4 | 0.00 | 1.65 | 0.00 | 93 | 1013.5 |
| 20260906131200 | 26 | 293 | 3.2 | 6.4 | 0.00 | 1.65 | 0.00 | 93 | 1013.4 |
| 20260906131004 | 25 | 281 | 3.2 | 6.4 | 0.00 | 1.65 | 0.00 | 93 | 1013.5 |
| 20260906130901 | 25 | 281 | 3.2 | 6.4 | 0.00 | 1.65 | 0.00 | 93 | 1013.6 |
| 20260906130700 | 25 | 284 | 3.2 | 6.4 | 0.00 | 1.65 | 0.00 | 93 | 1013.5 |
| 20260906130602 | 25 | 296 | 0.0 | 6.4 | 0.00 | 1.65 | 0.00 | 93 | 1013.5 |
| 20260906130503 | 25 | 296 | 4.8 | 6.4 | 0.00 | 1.65 | 0.00 | 93 | 1013.5 |
| 20260906130401 | 25 | 280 | 3.2 | 6.4 | 0.00 | 1.65 | 0.00 | 94 | 1013.5 |
| 20260906130300 | 25 | 268 | 3.2 | 6.4 | 0.00 | 1.65 | 0.00 | 93 | 1013.5 |
| 20260906130200 | 25 | 279 | 1.6 | 6.4 | 0.00 | 1.65 | 0.00 | 93 | 1013.5 |
| 20260906125900 | 25 | 285 | 4.8 | 4.8 | 0.00 | 1.65 | 0.00 | 94 | 1013.5 |
| 20260906125800 | 25 | 283 | 4.8 | 4.8 | 0.00 | 1.65 | 0.00 | 94 | 1013.4 |
| 20260906125700 | 25 | 295 | 4.8 | 4.8 | 0.00 | 1.65 | 0.00 | 95 | 1013.4 |
| 20260906125559 | 25 | 272 | 3.2 | 4.8 | 0.00 | 1.65 | 0.00 | 95 | 1013.4 |
| 20260906125503 | 25 | 276 | 3.2 | 4.8 | 0.00 | 1.65 | 0.00 | 95 | 1013.4 |
| 20260906125359 | 25 | 281 | 4.8 | 4.8 | 0.00 | 1.65 | 0.00 | 95 | 1013.3 |
| 20260906125301 | 25 | 280 | 0.0 | 4.8 | 0.00 | 1.65 | 0.00 | 95 | 1013.4 |
| 20260906125200 | 25 | 281 | 3.2 | 4.8 | 0.00 | 1.65 | 0.00 | 95 | 1013.4 |
| 20260906125100 | 25 | 279 | 4.8 | 4.8 | 0.00 | 1.65 | 0.00 | 95 | 1013.3 |
| 20260906125003 | 25 | 246 | 3.2 | 4.8 | 0.00 | 1.65 | 0.00 | 95 | 1013.3 |
| 20260906124859 | 25 | 265 | 3.2 | 4.8 | 0.00 | 1.65 | 0.00 | 95 | 1013.3 |
| 20260906124700 | 25 | 307 | 3.2 | 4.8 | 0.00 | 1.65 | 0.00 | 95 | 1013.2 |
| 20260906124559 | 25 | 298 | 3.2 | 4.8 | 0.00 | 1.65 | 0.00 | 95 | 1013.2 |
| 20260906124502 | 25 | 274 | 3.2 | 4.8 | 0.00 | 1.65 | 0.00 | 95 | 1013.2 |
| 20260906124400 | 25 | 286 | 3.2 | 4.8 | 0.00 | 1.65 | 0.00 | 95 | 1013.2 |
| 20260906124300 | 25 | 277 | 4.8 | 4.8 | 0.00 | 1.65 | 0.00 | 95 | 1013.2 |
| 20260906124200 | 25 | 298 | 3.2 | 4.8 | 0.00 | 1.65 | 0.00 | 95 | 1013.1 |
| 20260906124059 | 25 | 302 | 3.2 | 4.8 | 0.00 | 1.65 | 0.00 | 95 | 1013.2 |
| 20260906124003 | 25 | 285 | 3.2 | 4.8 | 0.00 | 1.65 | 0.00 | 95 | 1013.2 |
| 20260906123859 | 25 | 296 | 3.2 | 4.8 | 0.00 | 1.65 | 0.00 | 95 | 1013.1 |
| 20260906123800 | 25 | 282 | 3.2 | 4.8 | 0.00 | 1.65 | 0.00 | 95 | 1013.2 |
| 20260906123659 | 25 | 280 | 4.8 | 4.8 | 0.00 | 1.65 | 0.00 | 95 | 1013.1 |
| 20260906123559 | 25 | 304 | 3.2 | 6.4 | 0.00 | 1.65 | 0.00 | 95 | 1013.2 |
| 20260906123259 | 25 | 287 | 4.8 | 6.4 | 0.00 | 1.65 | 0.00 | 95 | 1013.1 |
| 20260906123200 | 24 | 301 | 4.8 | 6.4 | 0.00 | 1.65 | 0.00 | 95 | 1013.2 |
| 20260906123101 | 24 | 295 | 0.0 | 6.4 | 0.00 | 1.65 | 0.00 | 95 | 1013.1 |
| 20260906123003 | 24 | 296 | 3.2 | 6.4 | 0.00 | 1.65 | 0.00 | 95 | 1013.1 |
| 20260906122901 | 24 | 302 | 4.8 | 6.4 | 0.00 | 1.65 | 0.00 | 95 | 1013.1 |
| 20260906122700 | 24 | 293 | 4.8 | 6.4 | 0.00 | 1.65 | 0.00 | 95 | 1013.2 |
| 20260906122600 | 24 | 288 | 4.8 | 4.8 | 0.00 | 1.65 | 0.00 | 95 | 1013.2 |
| 20260906122502 | 24 | 273 | 4.8 | 4.8 | 0.00 | 1.65 | 0.00 | 95 | 1013.2 |
| 20260906122259 | 24 | 307 | 3.2 | 4.8 | 0.00 | 1.65 | 0.00 | 95 | 1013.2 |
| 20260906122200 | 24 | 319 | 3.2 | 4.8 | 0.00 | 1.65 | 0.00 | 95 | 1013.2 |
| 20260906122059 | 24 | 316 | 4.8 | 6.4 | 0.00 | 1.65 | 0.00 | 96 | 1013.2 |
| 20260906122004 | 24 | 319 | 3.2 | 6.4 | 0.00 | 1.65 | 0.00 | 95 | 1013.2 |
| 20260906121800 | 24 | 316 | 4.8 | 6.4 | 0.00 | 1.65 | 0.00 | 96 | 1013.2 |
| 20260906121700 | 24 | 304 | 3.2 | 6.4 | 0.00 | 1.65 | 0.00 | 95 | 1013.2 |
| 20260906121601 | 24 | 305 | 3.2 | 6.4 | 0.00 | 1.65 | 0.00 | 96 | 1013.2 |
| 20260906121400 | 24 | 323 | 3.2 | 6.4 | 0.00 | 1.65 | 0.00 | 96 | 1013.2 |
| 20260906121259 | 24 | 304 | 3.2 | 6.4 | 0.00 | 1.65 | 0.00 | 96 | 1013.3 |
| 20260906121200 | 24 | 323 | 4.8 | 6.4 | 0.00 | 1.65 | 0.00 | 96 | 1013.2 |
| 20260906121059 | 24 | 300 | 3.2 | 6.4 | 0.00 | 1.65 | 0.00 | 95 | 1013.2 |
| 20260906120900 | 24 | 305 | 4.8 | 4.8 | 0.00 | 1.65 | 0.00 | 95 | 1013.2 |
| 20260906120800 | 24 | 296 | 4.8 | 4.8 | 0.00 | 1.65 | 0.00 | 95 | 1013.2 |
| 20260906120659 | 24 | 311 | 4.8 | 4.8 | 0.00 | 1.65 | 0.00 | 95 | 1013.2 |
| 20260906120600 | 24 | 335 | 1.6 | 4.8 | 0.00 | 1.65 | 0.00 | 95 | 1013.1 |
| 20260906120501 | 24 | 300 | 3.2 | 4.8 | 0.00 | 1.65 | 0.00 | 95 | 1013.2 |
| 20260906120400 | 24 | 321 | 3.2 | 4.8 | 0.00 | 1.65 | 0.00 | 95 | 1013.2 |
| 20260906120300 | 24 | 314 | 3.2 | 4.8 | 0.00 | 1.65 | 0.00 | 95 | 1013.2 |
| 20260906120200 | 24 | 330 | 0.0 | 4.8 | 0.00 | 1.65 | 0.00 | 95 | 1013.1 |
| 20260906120100 | 24 | 285 | 1.6 | 4.8 | 0.00 | 1.65 | 0.00 | 95 | 1013.2 |
| 20260906120003 | 24 | 311 | 3.2 | 4.8 | 0.00 | 1.65 | 0.00 | 95 | 1013.2 |
| 20260906115900 | 24 | 296 | 3.2 | 4.8 | 0.00 | 1.65 | 0.00 | 95 | 1013.2 |
| 20260906115800 | 24 | 309 | 3.2 | 4.8 | 0.00 | 1.65 | 0.00 | 95 | 1013.1 |
| 20260906115659 | 24 | 289 | 3.2 | 4.8 | 0.00 | 1.65 | 0.00 | 96 | 1013.2 |
| 20260906115559 | 24 | 302 | 0.0 | 4.8 | 0.00 | 1.65 | 0.00 | 95 | 1013.2 |
| 20260906115502 | 23 | 287 | 1.6 | 4.8 | 0.00 | 1.65 | 0.00 | 95 | 1013.2 |
| 20260906115359 | 23 | 276 | 3.2 | 4.8 | 0.00 | 1.65 | 0.00 | 95 | 1013.1 |
| 20260906115300 | 23 | 293 | 3.2 | 4.8 | 0.00 | 1.65 | 0.00 | 95 | 1013.1 |
| 20260906115200 | 24 | 294 | 3.2 | 4.8 | 0.00 | 1.65 | 0.00 | 95 | 1013.2 |
| 20260906115100 | 23 | 286 | 3.2 | 4.8 | 0.00 | 1.65 | 0.00 | 95 | 1013.2 |
| 20260906115004 | 23 | 288 | 4.8 | 4.8 | 0.00 | 1.65 | 0.00 | 96 | 1013.2 |
| 20260906114800 | 23 | 295 | 4.8 | 4.8 | 0.00 | 1.65 | 0.00 | 96 | 1013.2 |
| 20260906114700 | 23 | 305 | 3.2 | 4.8 | 0.00 | 1.65 | 0.00 | 96 | 1013.2 |
| 20260906114600 | 23 | 311 | 3.2 | 4.8 | 0.00 | 1.65 | 0.00 | 96 | 1013.1 |
| 20260906114502 | 23 | 307 | 3.2 | 4.8 | 0.00 | 1.65 | 0.00 | 96 | 1013.1 |
| 20260906114401 | 23 | 316 | 1.6 | 4.8 | 0.00 | 1.65 | 0.00 | 95 | 1013.1 |
| 20260906114300 | 23 | 295 | 3.2 | 4.8 | 0.00 | 1.65 | 0.00 | 96 | 1013.0 |
| 20260906114100 | 23 | 284 | 4.8 | 4.8 | 0.00 | 1.65 | 0.00 | 95 | 1013.1 |
| 20260906114003 | 23 | 284 | 3.2 | 4.8 | 0.00 | 1.65 | 0.00 | 95 | 1013.0 |
| 20260906113900 | 23 | 281 | 3.2 | 4.8 | 0.00 | 1.65 | 0.00 | 96 | 1013.0 |
| 20260906113801 | 23 | 300 | 3.2 | 4.8 | 0.00 | 1.65 | 0.00 | 95 | 1012.9 |
| 20260906113701 | 23 | 281 | 3.2 | 4.8 | 0.00 | 1.65 | 0.00 | 95 | 1013.0 |
| 20260906113600 | 23 | 283 | 3.2 | 4.8 | 0.00 | 1.65 | 0.00 | 95 | 1012.9 |
| 20260906113503 | 23 | 278 | 4.8 | 4.8 | 0.00 | 1.65 | 0.00 | 95 | 1013.0 |
| 20260906113359 | 23 | 267 | 4.8 | 4.8 | 0.00 | 1.65 | 0.00 | 95 | 1012.9 |
| 20260906113300 | 23 | 278 | 3.2 | 4.8 | 0.00 | 1.65 | 0.00 | 95 | 1012.9 |
| 20260906113159 | 23 | 280 | 4.8 | 4.8 | 0.00 | 1.65 | 0.00 | 96 | 1012.9 |
| 20260906113059 | 23 | 279 | 3.2 | 4.8 | 0.00 | 1.65 | 0.00 | 95 | 1012.8 |
| 20260906113005 | 23 | 295 | 3.2 | 4.8 | 0.00 | 1.65 | 0.00 | 95 | 1012.9 |
| 20260906112900 | 23 | 307 | 3.2 | 4.8 | 0.00 | 1.65 | 0.00 | 95 | 1013.0 |
| 20260906112800 | 23 | 311 | 3.2 | 4.8 | 0.00 | 1.65 | 0.00 | 95 | 1013.0 |
| 20260906112700 | 23 | 324 | 3.2 | 4.8 | 0.00 | 1.65 | 0.00 | 95 | 1012.8 |
| 20260906112559 | 23 | 294 | 1.6 | 4.8 | 0.00 | 1.65 | 0.00 | 95 | 1012.9 |
| 20260906112502 | 23 | 347 | 4.8 | 4.8 | 0.00 | 1.65 | 0.00 | 96 | 1012.9 |
| 20260906112359 | 23 | 319 | 3.2 | 4.8 | 0.00 | 1.65 | 0.00 | 95 | 1013.0 |
| 20260906112300 | 23 | 295 | 1.6 | 4.8 | 0.00 | 1.65 | 0.00 | 96 | 1013.0 |
| 20260906112200 | 23 | 302 | 3.2 | 4.8 | 0.00 | 1.65 | 0.00 | 95 | 1013.0 |
| 20260906112059 | 23 | 314 | 3.2 | 4.8 | 0.00 | 1.65 | 0.00 | 95 | 1013.0 |
| 20260906112003 | 23 | 281 | 3.2 | 4.8 | 0.00 | 1.65 | 0.00 | 95 | 1013.0 |
| 20260906111900 | 23 | 278 | 3.2 | 4.8 | 0.00 | 1.65 | 0.00 | 96 | 1012.9 |
| 20260906111759 | 23 | 276 | 4.8 | 4.8 | 0.00 | 1.65 | 0.00 | 95 | 1012.9 |
| 20260906111359 | 23 | 309 | 3.2 | 4.8 | 0.00 | 1.65 | 0.00 | 95 | 1012.8 |
| 20260906111300 | 23 | 285 | 3.2 | 4.8 | 0.00 | 1.65 | 0.00 | 95 | 1012.8 |
| 20260906111159 | 23 | 316 | 3.2 | 4.8 | 0.00 | 1.65 | 0.00 | 95 | 1012.8 |
| 20260906111100 | 23 | 290 | 3.2 | 4.8 | 0.00 | 1.65 | 0.00 | 95 | 1012.8 |
| 20260906111004 | 23 | 309 | 3.2 | 4.8 | 0.00 | 1.65 | 0.00 | 95 | 1012.7 |
| 20260906110900 | 23 | 314 | 3.2 | 4.8 | 0.00 | 1.65 | 0.00 | 95 | 1012.7 |
| 20260906110800 | 23 | 330 | 3.2 | 4.8 | 0.00 | 1.65 | 0.00 | 95 | 1012.7 |
| 20260906110659 | 23 | 310 | 3.2 | 4.8 | 0.00 | 1.65 | 0.00 | 95 | 1012.7 |
| 20260906110600 | 23 | 317 | 3.2 | 4.8 | 0.00 | 1.65 | 0.00 | 95 | 1012.7 |
| 20260906110503 | 23 | 300 | 3.2 | 4.8 | 0.00 | 1.65 | 0.00 | 95 | 1012.7 |
| 20260906110400 | 23 | 330 | 4.8 | 4.8 | 0.00 | 1.65 | 0.00 | 95 | 1012.6 |
| 20260906110301 | 23 | 316 | 4.8 | 4.8 | 0.00 | 1.65 | 0.00 | 95 | 1012.7 |
| 20260906110159 | 23 | 321 | 3.2 | 4.8 | 0.00 | 1.65 | 0.00 | 95 | 1012.6 |
| 20260906110100 | 23 | 309 | 3.2 | 4.8 | 0.00 | 1.65 | 0.00 | 95 | 1012.7 |
| 20260906110006 | 23 | 324 | 3.2 | 4.8 | 0.00 | 1.65 | 0.00 | 95 | 1012.7 |
| 20260906105901 | 23 | 295 | 4.8 | 4.8 | 0.00 | 1.65 | 0.00 | 95 | 1012.7 |
| 20260906105801 | 23 | 326 | 3.2 | 4.8 | 0.00 | 1.65 | 0.00 | 95 | 1012.7 |
| 20260906105700 | 23 | 307 | 3.2 | 4.8 | 0.00 | 1.65 | 0.00 | 95 | 1012.6 |
| 20260906105602 | 23 | 302 | 3.2 | 4.8 | 0.00 | 1.65 | 0.00 | 95 | 1012.6 |
| 20260906105503 | 23 | 304 | 3.2 | 4.8 | 0.00 | 1.65 | 0.00 | 95 | 1012.7 |
| 20260906105401 | 23 | 317 | 3.2 | 4.8 | 0.00 | 1.65 | 0.00 | 95 | 1012.7 |
| 20260906105300 | 23 | 333 | 3.2 | 4.8 | 0.00 | 1.65 | 0.00 | 95 | 1012.7 |
| 20260906105200 | 23 | 316 | 3.2 | 4.8 | 0.00 | 1.65 | 0.00 | 95 | 1012.6 |
| 20260906105101 | 23 | 304 | 3.2 | 4.8 | 0.00 | 1.65 | 0.00 | 95 | 1012.7 |
| 20260906105004 | 23 | 319 | 3.2 | 4.8 | 0.00 | 1.65 | 0.00 | 95 | 1012.7 |
| 20260906104901 | 23 | 309 | 3.2 | 4.8 | 0.00 | 1.65 | 0.00 | 95 | 1012.7 |
| 20260906104800 | 23 | 305 | 4.8 | 4.8 | 0.00 | 1.65 | 0.00 | 95 | 1012.7 |
| 20260906104701 | 23 | 319 | 3.2 | 4.8 | 0.00 | 1.65 | 0.00 | 95 | 1012.7 |
| 20260906104503 | 23 | 316 | 3.2 | 4.8 | 0.00 | 1.65 | 0.00 | 95 | 1012.6 |
| 20260906104402 | 23 | 328 | 3.2 | 4.8 | 0.00 | 1.65 | 0.00 | 95 | 1012.6 |
| 20260906104300 | 23 | 316 | 3.2 | 4.8 | 0.00 | 1.65 | 0.00 | 95 | 1012.5 |
| 20260906104201 | 23 | 330 | 3.2 | 4.8 | 0.00 | 1.65 | 0.00 | 95 | 1012.5 |
| 20260906104101 | 23 | 328 | 3.2 | 4.8 | 0.00 | 1.65 | 0.00 | 95 | 1012.5 |
| 20260906104004 | 23 | 319 | 1.6 | 4.8 | 0.00 | 1.65 | 0.00 | 95 | 1012.5 |
| 20260906103901 | 23 | 307 | 1.6 | 4.8 | 0.00 | 1.65 | 0.00 | 95 | 1012.5 |
| 20260906103800 | 23 | 319 | 0.0 | 4.8 | 0.00 | 1.65 | 0.00 | 95 | 1012.5 |
| 20260906103700 | 23 | 293 | 3.2 | 4.8 | 0.00 | 1.65 | 0.00 | 95 | 1012.5 |
| 20260906103600 | 23 | 302 | 0.0 | 4.8 | 0.00 | 1.65 | 0.00 | 95 | 1012.4 |
| 20260906103503 | 23 | 316 | 3.2 | 4.8 | 0.00 | 1.65 | 0.00 | 95 | 1012.4 |
| 20260906103401 | 23 | 323 | 1.6 | 4.8 | 0.00 | 1.65 | 0.00 | 95 | 1012.3 |
| 20260906103301 | 23 | 302 | 1.6 | 4.8 | 0.00 | 1.65 | 0.00 | 95 | 1012.4 |
| 20260906103201 | 23 | 302 | 3.2 | 4.8 | 0.00 | 1.65 | 0.00 | 95 | 1012.3 |
| 20260906103101 | 23 | 312 | 1.6 | 4.8 | 0.00 | 1.65 | 0.00 | 95 | 1012.3 |
| 20260906103005 | 23 | 316 | 3.2 | 4.8 | 0.00 | 1.65 | 0.00 | 95 | 1012.3 |
| 20260906102801 | 23 | 316 | 4.8 | 4.8 | 0.00 | 1.65 | 0.00 | 95 | 1012.3 |
| 20260906102602 | 23 | 311 | 3.2 | 4.8 | 0.00 | 1.65 | 0.00 | 95 | 1012.3 |
| 20260906102503 | 23 | 319 | 3.2 | 4.8 | 0.00 | 1.65 | 0.00 | 95 | 1012.3 |
| 20260906102402 | 23 | 317 | 3.2 | 4.8 | 0.00 | 1.65 | 0.00 | 95 | 1012.3 |
| 20260906102305 | 23 | 326 | 3.2 | 4.8 | 0.00 | 1.65 | 0.00 | 95 | 1012.4 |
| 20260906102200 | 23 | 309 | 3.2 | 4.8 | 0.00 | 1.65 | 0.00 | 95 | 1012.3 |
| 20260906102100 | 23 | 311 | 3.2 | 4.8 | 0.00 | 1.65 | 0.00 | 95 | 1012.3 |
| 20260906102005 | 23 | 319 | 1.6 | 4.8 | 0.00 | 1.65 | 0.00 | 95 | 1012.3 |
| 20260906101900 | 23 | 314 | 3.2 | 4.8 | 0.00 | 1.65 | 0.00 | 95 | 1012.4 |
| 20260906101801 | 23 | 321 | 3.2 | 4.8 | 0.00 | 1.65 | 0.00 | 95 | 1012.3 |
| 20260906101701 | 23 | 284 | 3.2 | 4.8 | 0.00 | 1.65 | 0.00 | 95 | 1012.3 |
| 20260906101600 | 23 | 305 | 3.2 | 4.8 | 0.00 | 1.65 | 0.00 | 95 | 1012.3 |
| 20260906101503 | 23 | 297 | 4.8 | 4.8 | 0.00 | 1.65 | 0.00 | 95 | 1012.3 |
| 20260906101400 | 23 | 300 | 3.2 | 4.8 | 0.00 | 1.65 | 0.00 | 95 | 1012.2 |
| 20260906101301 | 23 | 287 | 1.6 | 4.8 | 0.00 | 1.65 | 0.00 | 95 | 1012.2 |
| 20260906100900 | 23 | 295 | 3.2 | 4.8 | 0.00 | 1.65 | 0.00 | 95 | 1012.2 |
| 20260906100701 | 23 | 311 | 1.6 | 4.8 | 0.00 | 1.65 | 0.00 | 95 | 1012.1 |
| 20260906100600 | 23 | 309 | 3.2 | 4.8 | 0.00 | 1.65 | 0.00 | 95 | 1012.2 |
| 20260906100504 | 23 | 295 | 3.2 | 4.8 | 0.00 | 1.65 | 0.00 | 95 | 1012.1 |
| 20260906100400 | 23 | 281 | 4.8 | 4.8 | 0.00 | 1.65 | 0.00 | 95 | 1012.2 |
| 20260906100300 | 23 | 280 | 3.2 | 4.8 | 0.00 | 1.65 | 0.00 | 95 | 1012.1 |
| 20260906100003 | 23 | 295 | 3.2 | 4.8 | 0.00 | 1.65 | 0.00 | 95 | 1012.1 |
| 20260906095800 | 23 | 285 | 4.8 | 4.8 | 0.00 | 1.65 | 0.00 | 95 | 1012.2 |
| 20260906095600 | 23 | 293 | 3.2 | 4.8 | 0.00 | 1.65 | 0.00 | 95 | 1012.2 |
| 20260906095503 | 23 | 311 | 3.2 | 4.8 | 0.00 | 1.65 | 0.00 | 95 | 1012.1 |
| 20260906095200 | 23 | 305 | 4.8 | 4.8 | 0.00 | 1.65 | 0.00 | 95 | 1012.1 |
| 20260906095100 | 23 | 286 | 3.2 | 4.8 | 0.00 | 1.65 | 0.00 | 95 | 1012.0 |
| 20260906094859 | 23 | 296 | 3.2 | 4.8 | 0.00 | 1.65 | 0.00 | 95 | 1012.0 |
| 20260906094800 | 23 | 303 | 3.2 | 4.8 | 0.00 | 1.65 | 0.00 | 95 | 1012.0 |
| 20260906094701 | 23 | 314 | 4.8 | 4.8 | 0.00 | 1.65 | 0.00 | 94 | 1011.9 |
| 20260906094559 | 23 | 316 | 3.2 | 4.8 | 0.00 | 1.65 | 0.00 | 94 | 1011.9 |
| 20260906094504 | 23 | 307 | 3.2 | 4.8 | 0.00 | 1.65 | 0.00 | 94 | 1011.9 |
| 20260906094300 | 23 | 309 | 3.2 | 4.8 | 0.00 | 1.65 | 0.00 | 94 | 1011.9 |
| 20260906094159 | 23 | 302 | 4.8 | 4.8 | 0.00 | 1.65 | 0.00 | 94 | 1011.9 |
| 20260906094059 | 23 | 288 | 3.2 | 4.8 | 0.00 | 1.65 | 0.00 | 94 | 1011.9 |
| 20260906094003 | 23 | 296 | 3.2 | 4.8 | 0.00 | 1.65 | 0.00 | 94 | 1011.8 |
| 20260906093800 | 23 | 307 | 1.6 | 4.8 | 0.00 | 1.65 | 0.00 | 94 | 1011.9 |
| 20260906093700 | 23 | 316 | 3.2 | 4.8 | 0.00 | 1.65 | 0.00 | 94 | 1012.0 |
| 20260906093559 | 23 | 302 | 3.2 | 4.8 | 0.00 | 1.65 | 0.00 | 94 | 1011.9 |
| 20260906093502 | 23 | 293 | 3.2 | 4.8 | 0.00 | 1.65 | 0.00 | 94 | 1011.9 |
| 20260906093400 | 23 | 302 | 1.6 | 4.8 | 0.00 | 1.65 | 0.00 | 94 | 1011.9 |
| 20260906093259 | 23 | 319 | 3.2 | 4.8 | 0.00 | 1.65 | 0.00 | 94 | 1012.0 |
| 20260906093201 | 23 | 302 | 0.0 | 4.8 | 0.00 | 1.65 | 0.00 | 94 | 1011.8 |
| 20260906093004 | 23 | 295 | 3.2 | 4.8 | 0.00 | 1.65 | 0.00 | 94 | 1011.9 |
| 20260906092900 | 23 | 309 | 3.2 | 4.8 | 0.00 | 1.65 | 0.00 | 94 | 1011.9 |
| 20260906092800 | 23 | 314 | 3.2 | 4.8 | 0.00 | 1.65 | 0.00 | 94 | 1011.9 |
| 20260906092700 | 23 | 316 | 4.8 | 4.8 | 0.00 | 1.65 | 0.00 | 94 | 1011.9 |
| 20260906092601 | 23 | 302 | 4.8 | 4.8 | 0.00 | 1.65 | 0.00 | 94 | 1011.8 |
| 20260906092502 | 23 | 295 | 4.8 | 4.8 | 0.00 | 1.65 | 0.00 | 94 | 1011.8 |
| 20260906092300 | 23 | 314 | 3.2 | 4.8 | 0.00 | 1.65 | 0.00 | 94 | 1011.9 |
| 20260906092200 | 23 | 302 | 3.2 | 4.8 | 0.00 | 1.65 | 0.00 | 94 | 1011.8 |
| 20260906092100 | 23 | 312 | 3.2 | 4.8 | 0.00 | 1.65 | 0.00 | 94 | 1011.9 |
| 20260906092003 | 23 | 303 | 3.2 | 4.8 | 0.00 | 1.65 | 0.00 | 94 | 1011.9 |
| 20260906091759 | 23 | 295 | 4.8 | 4.8 | 0.00 | 1.65 | 0.00 | 94 | 1011.9 |
| 20260906091700 | 23 | 317 | 1.6 | 4.8 | 0.00 | 1.65 | 0.00 | 94 | 1011.9 |
| 20260906091600 | 23 | 316 | 1.6 | 4.8 | 0.00 | 1.65 | 0.00 | 94 | 1011.9 |
| 20260906091503 | 23 | 321 | 0.0 | 4.8 | 0.00 | 1.65 | 0.00 | 94 | 1011.9 |
| 20260906091359 | 23 | 316 | 3.2 | 4.8 | 0.00 | 1.65 | 0.00 | 94 | 1011.8 |
| 20260906091300 | 23 | 312 | 1.6 | 4.8 | 0.00 | 1.65 | 0.00 | 94 | 1011.9 |
| 20260906091200 | 23 | 298 | 1.6 | 4.8 | 0.00 | 1.65 | 0.00 | 94 | 1011.8 |
| 20260906091100 | 23 | 295 | 3.2 | 4.8 | 0.00 | 1.65 | 0.00 | 94 | 1011.8 |
| 20260906091003 | 23 | 295 | 3.2 | 3.2 | 0.00 | 1.65 | 0.00 | 94 | 1011.8 |
| 20260906090900 | 23 | 321 | 1.6 | 3.2 | 0.00 | 1.65 | 0.00 | 94 | 1011.8 |
| 20260906090800 | 23 | 324 | 3.2 | 3.2 | 0.00 | 1.65 | 0.00 | 94 | 1011.8 |
| 20260906090700 | 23 | 311 | 1.6 | 3.2 | 0.00 | 1.65 | 0.00 | 94 | 1011.8 |
| 20260906090559 | 23 | 326 | 3.2 | 3.2 | 0.00 | 1.65 | 0.00 | 94 | 1011.8 |
| 20260906090503 | 23 | 326 | 3.2 | 3.2 | 0.00 | 1.65 | 0.00 | 94 | 1011.8 |
| 20260906090400 | 23 | 314 | 1.6 | 4.8 | 0.00 | 1.65 | 0.00 | 94 | 1011.8 |
| 20260906090300 | 23 | 328 | 0.0 | 4.8 | 0.00 | 1.65 | 0.00 | 94 | 1011.8 |
| 20260906090159 | 23 | 323 | 3.2 | 4.8 | 0.00 | 1.65 | 0.00 | 94 | 1011.8 |
| 20260906090059 | 23 | 285 | 0.0 | 4.8 | 0.00 | 1.65 | 0.00 | 93 | 1011.7 |
| 20260906090004 | 23 | 316 | 1.6 | 4.8 | 0.00 | 1.65 | 0.00 | 93 | 1011.8 |
| 20260906085901 | 23 | 316 | 0.0 | 4.8 | 0.00 | 1.65 | 0.00 | 94 | 1011.8 |
| 20260906085800 | 23 | 307 | 3.2 | 4.8 | 0.00 | 1.65 | 0.00 | 94 | 1011.8 |
| 20260906085600 | 23 | 286 | 3.2 | 4.8 | 0.00 | 1.65 | 0.00 | 94 | 1011.8 |
| 20260906085503 | 23 | 283 | 3.2 | 4.8 | 0.00 | 1.65 | 0.00 | 93 | 1011.8 |
| 20260906085400 | 23 | 293 | 3.2 | 4.8 | 0.00 | 1.65 | 0.00 | 93 | 1011.9 |
| 20260906085300 | 23 | 288 | 1.6 | 4.8 | 0.00 | 1.65 | 0.00 | 93 | 1011.9 |
| 20260906085059 | 23 | 326 | 1.6 | 4.8 | 0.00 | 1.65 | 0.00 | 93 | 1011.8 |
| 20260906085003 | 23 | 312 | 4.8 | 4.8 | 0.00 | 1.65 | 0.00 | 93 | 1011.8 |
| 20260906084859 | 23 | 310 | 3.2 | 4.8 | 0.00 | 1.65 | 0.00 | 93 | 1011.8 |
| 20260906084700 | 23 | 307 | 3.2 | 4.8 | 0.00 | 1.65 | 0.00 | 93 | 1011.7 |
| 20260906084600 | 23 | 324 | 3.2 | 4.8 | 0.00 | 1.65 | 0.00 | 93 | 1011.7 |
| 20260906084502 | 23 | 323 | 3.2 | 4.8 | 0.00 | 1.65 | 0.00 | 93 | 1011.7 |
| 20260906084359 | 23 | 321 | 3.2 | 3.2 | 0.00 | 1.65 | 0.00 | 93 | 1011.6 |
| 20260906084259 | 23 | 311 | 3.2 | 4.8 | 0.00 | 1.65 | 0.00 | 93 | 1011.7 |
| 20260906084200 | 23 | 309 | 1.6 | 4.8 | 0.00 | 1.65 | 0.00 | 93 | 1011.6 |
| 20260906084100 | 23 | 307 | 1.6 | 4.8 | 0.00 | 1.65 | 0.00 | 93 | 1011.6 |
| 20260906084003 | 23 | 319 | 1.6 | 4.8 | 0.00 | 1.65 | 0.00 | 93 | 1011.7 |
| 20260906083900 | 23 | 323 | 1.6 | 4.8 | 0.00 | 1.65 | 0.00 | 93 | 1011.7 |
| 20260906083800 | 23 | 312 | 3.2 | 4.8 | 0.00 | 1.65 | 0.00 | 93 | 1011.7 |
| 20260906083700 | 23 | 311 | 1.6 | 4.8 | 0.00 | 1.65 | 0.00 | 93 | 1011.7 |
| 20260906083600 | 23 | 321 | 3.2 | 4.8 | 0.00 | 1.65 | 0.00 | 93 | 1011.7 |
| 20260906083502 | 23 | 328 | 1.6 | 4.8 | 0.00 | 1.65 | 0.00 | 93 | 1011.7 |
| 20260906083400 | 23 | 296 | 1.6 | 3.2 | 0.00 | 1.65 | 0.00 | 93 | 1011.7 |
| 20260906083259 | 23 | 333 | 0.0 | 4.8 | 0.00 | 1.65 | 0.00 | 93 | 1011.7 |
| 20260906083159 | 23 | 328 | 1.6 | 4.8 | 0.00 | 1.65 | 0.00 | 93 | 1011.7 |
| 20260906083003 | 23 | 309 | 1.6 | 4.8 | 0.00 | 1.65 | 0.00 | 93 | 1011.7 |
| 20260906082900 | 23 | 326 | 3.2 | 4.8 | 0.00 | 1.65 | 0.00 | 93 | 1011.7 |
| 20260906082802 | 23 | 309 | 3.2 | 4.8 | 0.00 | 1.65 | 0.00 | 93 | 1011.7 |
| 20260906082700 | 23 | 307 | 1.6 | 4.8 | 0.00 | 1.65 | 0.00 | 93 | 1011.7 |
| 20260906082559 | 23 | 303 | 0.0 | 4.8 | 0.00 | 1.65 | 0.00 | 93 | 1011.7 |
| 20260906082501 | 23 | 296 | 3.2 | 4.8 | 0.00 | 1.65 | 0.00 | 93 | 1011.7 |
| 20260906082359 | 23 | 307 | 1.6 | 3.2 | 0.00 | 1.65 | 0.00 | 92 | 1011.6 |
| 20260906082259 | 23 | 307 | 1.6 | 3.2 | 0.00 | 1.65 | 0.00 | 92 | 1011.6 |
| 20260906082200 | 23 | 317 | 0.0 | 3.2 | 0.00 | 1.65 | 0.00 | 92 | 1011.6 |
| 20260906082059 | 23 | 291 | 0.0 | 4.8 | 0.00 | 1.65 | 0.00 | 92 | 1011.6 |
| 20260906082004 | 23 | 310 | 1.6 | 4.8 | 0.00 | 1.65 | 0.00 | 92 | 1011.5 |
| 20260906081859 | 23 | 323 | 3.2 | 4.8 | 0.00 | 1.65 | 0.00 | 92 | 1011.5 |
| 20260906081800 | 23 | 326 | 0.0 | 4.8 | 0.00 | 1.65 | 0.00 | 92 | 1011.6 |
| 20260906081659 | 23 | 312 | 3.2 | 4.8 | 0.00 | 1.65 | 0.00 | 92 | 1011.6 |
| 20260906081559 | 23 | 309 | 1.6 | 4.8 | 0.00 | 1.65 | 0.00 | 92 | 1011.6 |
| 20260906081400 | 23 | 307 | 3.2 | 4.8 | 0.00 | 1.65 | 0.00 | 92 | 1011.7 |
| 20260906081259 | 23 | 300 | 3.2 | 4.8 | 0.00 | 1.65 | 0.00 | 92 | 1011.6 |
| 20260906081201 | 24 | 314 | 3.2 | 4.8 | 0.00 | 1.65 | 0.00 | 92 | 1011.6 |
| 20260906081100 | 23 | 309 | 3.2 | 4.8 | 0.00 | 1.65 | 0.00 | 92 | 1011.7 |
| 20260906081004 | 24 | 307 | 1.6 | 4.8 | 0.00 | 1.65 | 0.00 | 92 | 1011.7 |
| 20260906080759 | 23 | 297 | 3.2 | 4.8 | 0.00 | 1.65 | 0.00 | 92 | 1011.7 |
| 20260906080600 | 24 | 307 | 3.2 | 4.8 | 0.00 | 1.65 | 0.00 | 92 | 1011.6 |
| 20260906080502 | 24 | 296 | 3.2 | 4.8 | 0.00 | 1.65 | 0.00 | 92 | 1011.6 |
| 20260906080400 | 24 | 321 | 3.2 | 4.8 | 0.00 | 1.65 | 0.00 | 92 | 1011.6 |
| 20260906080300 | 24 | 296 | 3.2 | 4.8 | 0.00 | 1.65 | 0.00 | 92 | 1011.7 |
| 20260906080200 | 24 | 294 | 0.0 | 3.2 | 0.00 | 1.65 | 0.00 | 92 | 1011.6 |
| 20260906080100 | 24 | 319 | 1.6 | 3.2 | 0.00 | 1.65 | 0.00 | 92 | 1011.7 |
| 20260906080003 | 24 | 314 | 3.2 | 3.2 | 0.00 | 1.65 | 0.00 | 92 | 1011.7 |
| 20260906075900 | 24 | 300 | 1.6 | 3.2 | 0.00 | 1.65 | 0.00 | 92 | 1011.7 |
| 20260906075800 | 24 | 328 | 1.6 | 4.8 | 0.00 | 1.65 | 0.00 | 92 | 1011.7 |
| 20260906075659 | 24 | 324 | 1.6 | 4.8 | 0.00 | 1.65 | 0.00 | 92 | 1011.7 |
| 20260906075600 | 24 | 307 | 0.0 | 4.8 | 0.00 | 1.65 | 0.00 | 92 | 1011.8 |
| 20260906075400 | 24 | 312 | 1.6 | 4.8 | 0.00 | 1.65 | 0.00 | 91 | 1011.8 |
| 20260906075259 | 24 | 302 | 1.6 | 4.8 | 0.00 | 1.65 | 0.00 | 91 | 1011.7 |
| 20260906075200 | 24 | 314 | 1.6 | 4.8 | 0.00 | 1.65 | 0.00 | 92 | 1011.7 |
| 20260906075100 | 24 | 321 | 0.0 | 4.8 | 0.00 | 1.65 | 0.00 | 91 | 1011.8 |
| 20260906074900 | 24 | 294 | 3.2 | 4.8 | 0.00 | 1.65 | 0.00 | 92 | 1011.7 |
| 20260906074700 | 24 | 303 | 3.2 | 4.8 | 0.00 | 1.65 | 0.00 | 92 | 1011.7 |
| 20260906074559 | 24 | 305 | 1.6 | 4.8 | 0.00 | 1.65 | 0.00 | 91 | 1011.8 |
| 20260906074503 | 24 | 324 | 3.2 | 4.8 | 0.00 | 1.65 | 0.00 | 91 | 1011.7 |
| 20260906074200 | 24 | 324 | 3.2 | 3.2 | 0.00 | 1.65 | 0.00 | 91 | 1011.9 |
| 20260906074100 | 24 | 326 | 1.6 | 4.8 | 0.00 | 1.65 | 0.00 | 91 | 1011.8 |
| 20260906074003 | 24 | 309 | 0.0 | 4.8 | 0.00 | 1.65 | 0.00 | 91 | 1011.8 |
| 20260906073900 | 24 | 295 | 0.0 | 4.8 | 0.00 | 1.65 | 0.00 | 91 | 1011.8 |
| 20260906073700 | 24 | 310 | 0.0 | 4.8 | 0.00 | 1.65 | 0.00 | 91 | 1011.8 |
| 20260906073559 | 24 | 316 | 3.2 | 4.8 | 0.00 | 1.65 | 0.00 | 91 | 1011.8 |
| 20260906073500 | 24 | 321 | 3.2 | 4.8 | 0.00 | 1.65 | 0.00 | 91 | 1011.7 |
| 20260906073359 | 24 | 323 | 1.6 | 4.8 | 0.00 | 1.65 | 0.00 | 91 | 1011.8 |
| 20260906073300 | 24 | 304 | 3.2 | 4.8 | 0.00 | 1.65 | 0.00 | 91 | 1011.8 |
| 20260906073200 | 24 | 280 | 3.2 | 4.8 | 0.00 | 1.65 | 0.00 | 91 | 1011.9 |
| 20260906073100 | 24 | 302 | 3.2 | 4.8 | 0.00 | 1.65 | 0.00 | 91 | 1011.8 |
| 20260906073003 | 24 | 297 | 3.2 | 4.8 | 0.00 | 1.65 | 0.00 | 91 | 1011.9 |
| 20260906072900 | 24 | 302 | 3.2 | 4.8 | 0.00 | 1.65 | 0.00 | 91 | 1011.9 |
| 20260906072759 | 24 | 316 | 3.2 | 4.8 | 0.00 | 1.65 | 0.00 | 91 | 1011.9 |
| 20260906072701 | 24 | 314 | 3.2 | 4.8 | 0.00 | 1.65 | 0.00 | 91 | 1011.9 |
| 20260906072600 | 24 | 311 | 3.2 | 4.8 | 0.00 | 1.65 | 0.00 | 91 | 1011.9 |
| 20260906072259 | 24 | 321 | 3.2 | 4.8 | 0.00 | 1.65 | 0.00 | 91 | 1011.8 |
| 20260906072200 | 24 | 290 | 4.8 | 4.8 | 0.00 | 1.65 | 0.00 | 91 | 1011.8 |
| 20260906072059 | 24 | 316 | 3.2 | 4.8 | 0.00 | 1.65 | 0.00 | 91 | 1011.8 |
| 20260906072003 | 24 | 309 | 3.2 | 4.8 | 0.00 | 1.65 | 0.00 | 91 | 1011.8 |
| 20260906071900 | 24 | 323 | 3.2 | 4.8 | 0.00 | 1.65 | 0.00 | 91 | 1011.8 |
| 20260906071800 | 24 | 314 | 3.2 | 4.8 | 0.00 | 1.65 | 0.00 | 91 | 1011.8 |
| 20260906071700 | 24 | 307 | 3.2 | 4.8 | 0.00 | 1.65 | 0.00 | 91 | 1011.7 |
| 20260906071600 | 24 | 307 | 4.8 | 4.8 | 0.00 | 1.65 | 0.00 | 91 | 1011.8 |
| 20260906071400 | 24 | 316 | 3.2 | 4.8 | 0.00 | 1.65 | 0.00 | 91 | 1011.8 |
| 20260906071159 | 24 | 287 | 4.8 | 4.8 | 0.00 | 1.65 | 0.00 | 91 | 1011.7 |
| 20260906071100 | 24 | 281 | 4.8 | 4.8 | 0.00 | 1.65 | 0.00 | 91 | 1011.7 |
| 20260906071004 | 24 | 279 | 1.6 | 4.8 | 0.00 | 1.65 | 0.00 | 91 | 1011.8 |
| 20260906070900 | 24 | 309 | 1.6 | 4.8 | 0.00 | 1.65 | 0.00 | 91 | 1011.8 |
| 20260906070759 | 24 | 302 | 3.2 | 4.8 | 0.00 | 1.65 | 0.00 | 91 | 1011.8 |
| 20260906070700 | 24 | 295 | 3.2 | 4.8 | 0.00 | 1.65 | 0.00 | 91 | 1011.8 |
| 20260906070600 | 24 | 307 | 3.2 | 4.8 | 0.00 | 1.65 | 0.00 | 91 | 1011.8 |
| 20260906070501 | 24 | 319 | 3.2 | 4.8 | 0.00 | 1.65 | 0.00 | 91 | 1011.9 |
| 20260906070300 | 24 | 293 | 4.8 | 4.8 | 0.00 | 1.65 | 0.00 | 91 | 1011.9 |
| 20260906070159 | 24 | 305 | 3.2 | 4.8 | 0.00 | 1.65 | 0.00 | 91 | 1011.9 |
| 20260906065858 | 24 | 307 | 0.0 | 4.8 | 0.00 | 1.65 | 0.00 | 91 | 1011.8 |
| 20260906065758 | 24 | 316 | 3.2 | 4.8 | 0.00 | 1.65 | 0.00 | 91 | 1011.8 |
| 20260906065659 | 24 | 319 | 3.2 | 4.8 | 0.00 | 1.65 | 0.00 | 91 | 1011.8 |
| 20260906065559 | 24 | 304 | 3.2 | 4.8 | 0.00 | 1.65 | 0.00 | 91 | 1011.8 |
| 20260906065500 | 24 | 303 | 3.2 | 4.8 | 0.00 | 1.65 | 0.00 | 91 | 1011.8 |
| 20260906065358 | 24 | 310 | 0.0 | 4.8 | 0.00 | 1.65 | 0.00 | 91 | 1011.8 |
| 20260906065259 | 24 | 287 | 1.6 | 4.8 | 0.00 | 1.65 | 0.00 | 91 | 1011.9 |
| 20260906065159 | 24 | 295 | 3.2 | 4.8 | 0.00 | 1.65 | 0.00 | 91 | 1011.8 |
| 20260906065003 | 24 | 311 | 1.6 | 4.8 | 0.00 | 1.65 | 0.00 | 91 | 1011.9 |
| 20260906064859 | 24 | 333 | 1.6 | 4.8 | 0.00 | 1.65 | 0.00 | 91 | 1011.9 |
| 20260906064800 | 24 | 305 | 3.2 | 4.8 | 0.00 | 1.65 | 0.00 | 91 | 1011.9 |
| 20260906064659 | 24 | 302 | 3.2 | 4.8 | 0.00 | 1.65 | 0.00 | 91 | 1011.9 |
| 20260906064558 | 24 | 300 | 3.2 | 4.8 | 0.00 | 1.65 | 0.00 | 91 | 1011.9 |
| 20260906064500 | 24 | 309 | 4.8 | 4.8 | 0.00 | 1.65 | 0.00 | 91 | 1011.9 |
| 20260906064358 | 24 | 314 | 3.2 | 4.8 | 0.00 | 1.65 | 0.00 | 91 | 1011.9 |
| 20260906064258 | 24 | 316 | 3.2 | 4.8 | 0.00 | 1.65 | 0.00 | 91 | 1011.9 |
| 20260906064159 | 24 | 328 | 3.2 | 4.8 | 0.00 | 1.65 | 0.00 | 91 | 1011.9 |
| 20260906064059 | 24 | 330 | 3.2 | 4.8 | 0.00 | 1.65 | 0.00 | 90 | 1011.9 |
| 20260906064002 | 24 | 328 | 4.8 | 4.8 | 0.00 | 1.65 | 0.00 | 90 | 1012.0 |
| 20260906063900 | 24 | 321 | 4.8 | 4.8 | 0.00 | 1.65 | 0.00 | 90 | 1012.0 |
| 20260906063657 | 24 | 314 | 3.2 | 4.8 | 0.00 | 1.65 | 0.00 | 90 | 1012.0 |
| 20260906063500 | 24 | 317 | 3.2 | 4.8 | 0.00 | 1.65 | 0.00 | 90 | 1012.1 |
| 20260906063358 | 24 | 324 | 3.2 | 4.8 | 0.00 | 1.65 | 0.00 | 90 | 1012.1 |
| 20260906063258 | 24 | 317 | 3.2 | 4.8 | 0.00 | 1.65 | 0.00 | 90 | 1012.0 |
| 20260906063059 | 24 | 319 | 3.2 | 4.8 | 0.00 | 1.65 | 0.00 | 90 | 1011.9 |
| 20260906063003 | 24 | 347 | 3.2 | 4.8 | 0.00 | 1.65 | 0.00 | 90 | 1011.9 |
| 20260906062859 | 24 | 317 | 1.6 | 4.8 | 0.00 | 1.65 | 0.00 | 90 | 1011.9 |
| 20260906062759 | 24 | 317 | 0.0 | 4.8 | 0.00 | 1.65 | 0.00 | 90 | 1011.9 |
| 20260906062659 | 24 | 302 | 1.6 | 4.8 | 0.00 | 1.65 | 0.00 | 90 | 1011.9 |
| 20260906062559 | 24 | 288 | 3.2 | 4.8 | 0.00 | 1.65 | 0.00 | 90 | 1011.9 |
| 20260906062500 | 24 | 314 | 3.2 | 4.8 | 0.00 | 1.65 | 0.00 | 90 | 1011.9 |
| 20260906062359 | 24 | 309 | 3.2 | 4.8 | 0.00 | 1.65 | 0.00 | 90 | 1011.9 |
| 20260906062259 | 24 | 345 | 3.2 | 4.8 | 0.00 | 1.65 | 0.00 | 90 | 1012.0 |
| 20260906062159 | 24 | 340 | 3.2 | 4.8 | 0.00 | 1.65 | 0.00 | 90 | 1012.0 |
| 20260906062059 | 24 | 324 | 1.6 | 4.8 | 0.00 | 1.65 | 0.00 | 90 | 1012.0 |
| 20260906062003 | 24 | 307 | 3.2 | 4.8 | 0.00 | 1.65 | 0.00 | 90 | 1012.0 |
| 20260906061858 | 24 | 305 | 3.2 | 4.8 | 0.00 | 1.65 | 0.00 | 90 | 1012.0 |
| 20260906061758 | 24 | 314 | 3.2 | 4.8 | 0.00 | 1.65 | 0.00 | 90 | 1012.0 |
| 20260906061658 | 24 | 302 | 1.6 | 4.8 | 0.00 | 1.65 | 0.00 | 90 | 1012.0 |
| 20260906061558 | 24 | 316 | 1.6 | 4.8 | 0.00 | 1.65 | 0.00 | 90 | 1012.0 |
| 20260906061501 | 24 | 288 | 4.8 | 4.8 | 0.00 | 1.65 | 0.00 | 90 | 1012.0 |
| 20260906061359 | 24 | 305 | 3.2 | 4.8 | 0.00 | 1.65 | 0.00 | 90 | 1012.0 |
| 20260906061259 | 24 | 307 | 1.6 | 4.8 | 0.00 | 1.65 | 0.00 | 90 | 1012.0 |
| 20260906061158 | 24 | 310 | 3.2 | 4.8 | 0.00 | 1.65 | 0.00 | 90 | 1012.0 |
| 20260906061002 | 24 | 310 | 3.2 | 4.8 | 0.00 | 1.65 | 0.00 | 90 | 1012.0 |
| 20260906060858 | 24 | 300 | 3.2 | 4.8 | 0.00 | 1.65 | 0.00 | 90 | 1012.0 |
| 20260906060759 | 24 | 309 | 1.6 | 4.8 | 0.00 | 1.65 | 0.00 | 90 | 1012.0 |
| 20260906060659 | 24 | 314 | 3.2 | 4.8 | 0.00 | 1.65 | 0.00 | 90 | 1012.0 |
| 20260906060558 | 24 | 321 | 3.2 | 4.8 | 0.00 | 1.65 | 0.00 | 90 | 1011.9 |
| 20260906060500 | 24 | 333 | 0.0 | 3.2 | 0.00 | 1.65 | 0.00 | 90 | 1011.9 |
| 20260906060358 | 24 | 331 | 3.2 | 3.2 | 0.00 | 1.65 | 0.00 | 90 | 1012.0 |
| 20260906060258 | 24 | 333 | 0.0 | 3.2 | 0.00 | 1.65 | 0.00 | 90 | 1011.9 |
| 20260906060158 | 24 | 284 | 0.0 | 3.2 | 0.00 | 1.65 | 0.00 | 90 | 1011.9 |
| 20260906060057 | 24 | 307 | 1.6 | 3.2 | 0.00 | 1.65 | 0.00 | 90 | 1011.9 |
| 20260906060008 | 24 | 295 | 0.0 | 3.2 | 0.00 | 1.65 | 0.00 | 90 | 1011.9 |
| 20260906055902 | 24 | 280 | 0.0 | 3.2 | 0.00 | 1.65 | 0.00 | 90 | 1011.9 |
| 20260906055802 | 24 | 241 | 0.0 | 4.8 | 0.00 | 1.65 | 0.00 | 90 | 1011.9 |
| 20260906055702 | 24 | 304 | 0.0 | 4.8 | 0.00 | 1.65 | 0.00 | 90 | 1012.0 |
| 20260906055601 | 24 | 304 | 0.0 | 4.8 | 0.00 | 1.65 | 0.00 | 90 | 1012.0 |
| 20260906055505 | 24 | 314 | 0.0 | 4.8 | 0.00 | 1.65 | 0.00 | 90 | 1012.0 |
| 20260906055306 | 24 | 311 | 3.2 | 4.8 | 0.00 | 1.65 | 0.00 | 90 | 1012.1 |
| 20260906055201 | 24 | 333 | 0.0 | 4.8 | 0.00 | 1.65 | 0.00 | 89 | 1012.1 |
| 20260906055101 | 24 | 307 | 3.2 | 4.8 | 0.00 | 1.65 | 0.00 | 89 | 1012.2 |
| 20260906055005 | 24 | 314 | 1.6 | 4.8 | 0.00 | 1.65 | 0.00 | 89 | 1012.3 |
| 20260906054902 | 24 | 308 | 3.2 | 4.8 | 0.00 | 1.65 | 0.00 | 89 | 1012.3 |
| 20260906054802 | 24 | 319 | 3.2 | 4.8 | 0.00 | 1.65 | 0.00 | 89 | 1012.3 |
| 20260906054702 | 24 | 297 | 3.2 | 4.8 | 0.00 | 1.65 | 0.00 | 89 | 1012.3 |
| 20260906054601 | 24 | 317 | 3.2 | 4.8 | 0.00 | 1.65 | 0.00 | 89 | 1012.3 |
| 20260906054503 | 24 | 305 | 3.2 | 4.8 | 0.00 | 1.65 | 0.00 | 89 | 1012.3 |
| 20260906054402 | 24 | 280 | 3.2 | 4.8 | 0.00 | 1.65 | 0.00 | 89 | 1012.3 |
| 20260906054301 | 25 | 295 | 3.2 | 4.8 | 0.00 | 1.65 | 0.00 | 89 | 1012.3 |
| 20260906054202 | 24 | 287 | 0.0 | 4.8 | 0.00 | 1.65 | 0.00 | 89 | 1012.4 |
| 20260906054102 | 25 | 285 | 3.2 | 4.8 | 0.00 | 1.65 | 0.00 | 89 | 1012.5 |
| 20260906054005 | 24 | 288 | 3.2 | 4.8 | 0.00 | 1.65 | 0.00 | 89 | 1012.5 |
| 20260906053901 | 25 | 314 | 3.2 | 4.8 | 0.00 | 1.65 | 0.00 | 89 | 1012.5 |
| 20260906053802 | 25 | 296 | 3.2 | 4.8 | 0.00 | 1.65 | 0.00 | 89 | 1012.4 |
| 20260906053702 | 25 | 321 | 3.2 | 4.8 | 0.00 | 1.65 | 0.00 | 89 | 1012.4 |
| 20260906053602 | 25 | 328 | 3.2 | 4.8 | 0.00 | 1.65 | 0.00 | 89 | 1012.4 |
| 20260906053402 | 25 | 323 | 3.2 | 4.8 | 0.00 | 1.65 | 0.00 | 89 | 1012.4 |
| 20260906053302 | 25 | 312 | 3.2 | 4.8 | 0.00 | 1.65 | 0.00 | 89 | 1012.4 |
| 20260906053201 | 25 | 311 | 3.2 | 4.8 | 0.00 | 1.65 | 0.00 | 89 | 1012.4 |
| 20260906053102 | 25 | 319 | 3.2 | 4.8 | 0.00 | 1.65 | 0.00 | 89 | 1012.4 |
| 20260906053004 | 25 | 300 | 4.8 | 4.8 | 0.00 | 1.65 | 0.00 | 89 | 1012.4 |
| 20260906052902 | 25 | 326 | 3.2 | 4.8 | 0.00 | 1.65 | 0.00 | 89 | 1012.4 |
| 20260906052802 | 25 | 309 | 3.2 | 4.8 | 0.00 | 1.65 | 0.00 | 89 | 1012.4 |
| 20260906052701 | 25 | 311 | 4.8 | 4.8 | 0.00 | 1.65 | 0.00 | 89 | 1012.4 |
| 20260906052602 | 25 | 312 | 3.2 | 4.8 | 0.00 | 1.65 | 0.00 | 89 | 1012.4 |
| 20260906052504 | 25 | 316 | 4.8 | 4.8 | 0.00 | 1.65 | 0.00 | 89 | 1012.3 |
| 20260906052402 | 25 | 314 | 3.2 | 4.8 | 0.00 | 1.65 | 0.00 | 89 | 1012.3 |
| 20260906052305 | 24 | 326 | 3.2 | 4.8 | 0.00 | 1.65 | 0.00 | 89 | 1012.3 |
| 20260906052201 | 24 | 326 | 3.2 | 4.8 | 0.00 | 1.65 | 0.00 | 89 | 1012.3 |
| 20260906052102 | 24 | 317 | 4.8 | 4.8 | 0.00 | 1.65 | 0.00 | 89 | 1012.3 |
| 20260906052006 | 24 | 311 | 3.2 | 4.8 | 0.00 | 1.65 | 0.00 | 89 | 1012.3 |
| 20260906051902 | 24 | 302 | 1.6 | 4.8 | 0.00 | 1.65 | 0.00 | 89 | 1012.3 |
| 20260906051800 | 24 | 302 | 1.6 | 4.8 | 0.00 | 1.65 | 0.00 | 89 | 1012.4 |
| 20260906051702 | 24 | 302 | 3.2 | 4.8 | 0.00 | 1.65 | 0.00 | 89 | 1012.4 |
| 20260906051602 | 24 | 307 | 1.6 | 4.8 | 0.00 | 1.65 | 0.00 | 89 | 1012.4 |
| 20260906051504 | 24 | 304 | 3.2 | 4.8 | 0.00 | 1.65 | 0.00 | 89 | 1012.5 |
| 20260906051402 | 24 | 309 | 3.2 | 4.8 | 0.00 | 1.65 | 0.00 | 89 | 1012.5 |
| 20260906051301 | 24 | 326 | 3.2 | 4.8 | 0.00 | 1.65 | 0.00 | 89 | 1012.5 |
| 20260906051204 | 24 | 338 | 3.2 | 4.8 | 0.00 | 1.65 | 0.00 | 89 | 1012.5 |
| 20260906051102 | 24 | 312 | 1.6 | 4.8 | 0.00 | 1.65 | 0.00 | 89 | 1012.5 |
| 20260906051005 | 24 | 305 | 3.2 | 4.8 | 0.00 | 1.65 | 0.00 | 89 | 1012.4 |
| 20260906050901 | 24 | 307 | 3.2 | 4.8 | 0.00 | 1.65 | 0.00 | 89 | 1012.5 |
| 20260906050701 | 24 | 309 | 3.2 | 4.8 | 0.00 | 1.65 | 0.00 | 89 | 1012.4 |
| 20260906050601 | 24 | 295 | 3.2 | 4.8 | 0.00 | 1.65 | 0.00 | 89 | 1012.4 |
| 20260906050504 | 24 | 295 | 3.2 | 4.8 | 0.00 | 1.65 | 0.00 | 89 | 1012.4 |
| 20260906050302 | 24 | 309 | 1.6 | 4.8 | 0.00 | 1.65 | 0.00 | 89 | 1012.4 |
| 20260906050201 | 24 | 311 | 3.2 | 4.8 | 0.00 | 1.65 | 0.00 | 89 | 1012.5 |
| 20260906045902 | 24 | 328 | 1.6 | 3.2 | 0.00 | 1.65 | 1.65 | 89 | 1012.3 |
| 20260906045802 | 24 | 326 | 3.2 | 3.2 | 0.00 | 1.65 | 1.65 | 89 | 1012.3 |
| 20260906045702 | 24 | 307 | 3.2 | 3.2 | 0.00 | 1.65 | 1.65 | 89 | 1012.3 |
| 20260906045602 | 24 | 319 | 3.2 | 4.8 | 0.00 | 1.65 | 1.65 | 88 | 1012.3 |
| 20260906045502 | 24 | 331 | 0.0 | 4.8 | 0.00 | 1.65 | 1.65 | 88 | 1012.4 |
| 20260906045400 | 24 | 309 | 3.2 | 4.8 | 0.00 | 1.65 | 1.65 | 88 | 1012.4 |
| 20260906045305 | 24 | 302 | 0.0 | 4.8 | 0.00 | 1.65 | 1.65 | 88 | 1012.4 |
| 20260906045203 | 24 | 303 | 1.6 | 4.8 | 0.00 | 1.65 | 1.65 | 88 | 1012.4 |
| 20260906045100 | 24 | 293 | 0.0 | 4.8 | 0.00 | 1.65 | 1.65 | 88 | 1012.4 |
| 20260906045006 | 24 | 302 | 0.0 | 4.8 | 0.00 | 1.65 | 1.65 | 88 | 1012.4 |
| 20260906044901 | 24 | 295 | 1.6 | 4.8 | 0.00 | 1.65 | 1.65 | 88 | 1012.4 |
| 20260906044801 | 24 | 316 | 0.0 | 4.8 | 0.00 | 1.65 | 1.65 | 88 | 1012.4 |
| 20260906044702 | 24 | 316 | 1.6 | 4.8 | 0.00 | 1.65 | 1.65 | 88 | 1012.4 |
| 20260906044603 | 24 | 305 | 3.2 | 4.8 | 0.00 | 1.65 | 1.65 | 88 | 1012.5 |
| 20260906044401 | 24 | 300 | 3.2 | 4.8 | 0.00 | 1.65 | 1.65 | 88 | 1012.4 |
| 20260906044102 | 24 | 302 | 3.2 | 4.8 | 0.00 | 1.65 | 1.65 | 88 | 1012.5 |
| 20260906044005 | 24 | 278 | 0.0 | 4.8 | 0.00 | 1.65 | 1.65 | 88 | 1012.5 |
| 20260906043901 | 25 | 293 | 1.6 | 4.8 | 0.00 | 1.65 | 1.65 | 88 | 1012.5 |
| 20260906043801 | 25 | 305 | 1.6 | 4.8 | 0.00 | 1.65 | 1.65 | 88 | 1012.5 |
| 20260906043503 | 25 | 298 | 3.2 | 4.8 | 0.00 | 1.65 | 1.65 | 88 | 1012.5 |
| 20260906043402 | 25 | 283 | 4.8 | 4.8 | 0.00 | 1.65 | 1.65 | 88 | 1012.5 |
| 20260906043201 | 25 | 326 | 3.2 | 4.8 | 0.00 | 1.65 | 1.65 | 88 | 1012.5 |
| 20260906043101 | 24 | 307 | 3.2 | 4.8 | 0.00 | 1.65 | 1.65 | 88 | 1012.5 |
| 20260906043008 | 24 | 319 | 3.2 | 4.8 | 0.00 | 1.65 | 1.65 | 88 | 1012.5 |
| 20260906042901 | 24 | 349 | 3.2 | 4.8 | 0.00 | 1.65 | 1.65 | 88 | 1012.5 |
| 20260906042804 | 24 | 333 | 3.2 | 4.8 | 0.00 | 1.65 | 1.65 | 88 | 1012.5 |
| 20260906042701 | 24 | 330 | 1.6 | 4.8 | 0.00 | 1.65 | 1.65 | 88 | 1012.5 |
| 20260906042601 | 25 | 317 | 3.2 | 4.8 | 0.00 | 1.65 | 1.65 | 88 | 1012.6 |
| 20260906042504 | 24 | 323 | 3.2 | 4.8 | 0.00 | 1.65 | 1.65 | 88 | 1012.6 |
| 20260906042402 | 24 | 316 | 3.2 | 4.8 | 0.00 | 1.65 | 1.65 | 88 | 1012.6 |
| 20260906042201 | 24 | 340 | 1.6 | 4.8 | 0.00 | 1.65 | 1.65 | 88 | 1012.6 |
| 20260906042101 | 24 | 319 | 1.6 | 4.8 | 0.00 | 1.65 | 1.65 | 88 | 1012.6 |
| 20260906041801 | 24 | 312 | 3.2 | 4.8 | 0.00 | 1.65 | 1.65 | 88 | 1012.6 |
| 20260906041702 | 25 | 333 | 3.2 | 4.8 | 0.00 | 1.65 | 1.65 | 88 | 1012.5 |
| 20260906041602 | 24 | 311 | 3.2 | 4.8 | 0.00 | 1.65 | 1.65 | 88 | 1012.5 |
| 20260906041504 | 24 | 316 | 4.8 | 4.8 | 0.00 | 1.65 | 1.65 | 88 | 1012.5 |
| 20260906041402 | 24 | 312 | 3.2 | 4.8 | 0.00 | 1.65 | 1.65 | 88 | 1012.5 |
| 20260906041301 | 24 | 323 | 3.2 | 4.8 | 0.00 | 1.65 | 1.65 | 87 | 1012.5 |
| 20260906041101 | 25 | 293 | 1.6 | 4.8 | 0.00 | 1.65 | 1.65 | 87 | 1012.4 |
| 20260906041004 | 25 | 295 | 3.2 | 4.8 | 0.00 | 1.65 | 1.65 | 87 | 1012.5 |
| 20260906040903 | 25 | 285 | 0.0 | 4.8 | 0.00 | 1.65 | 1.65 | 87 | 1012.6 |
| 20260906040703 | 25 | 280 | 0.0 | 4.8 | 0.00 | 1.65 | 1.65 | 87 | 1012.6 |
| 20260906040601 | 25 | 270 | 3.2 | 4.8 | 0.00 | 1.65 | 1.65 | 87 | 1012.6 |
| 20260906040504 | 25 | 261 | 0.0 | 4.8 | 0.00 | 1.65 | 1.65 | 87 | 1012.6 |
| 20260906040403 | 25 | 272 | 1.6 | 4.8 | 0.00 | 1.65 | 1.65 | 87 | 1012.6 |
| 20260906040302 | 25 | 309 | 3.2 | 4.8 | 0.00 | 1.65 | 1.65 | 87 | 1012.7 |
| 20260906040201 | 25 | 286 | 4.8 | 4.8 | 0.00 | 1.65 | 1.65 | 87 | 1012.7 |
| 20260906040005 | 25 | 316 | 3.2 | 4.8 | 0.00 | 1.65 | 1.65 | 87 | 1012.7 |
| 20260906035901 | 25 | 297 | 3.2 | 3.2 | 0.00 | 1.65 | 1.65 | 87 | 1012.6 |
| 20260906035801 | 25 | 323 | 1.6 | 3.2 | 0.00 | 1.65 | 1.65 | 87 | 1012.6 |
| 20260906035702 | 25 | 314 | 1.6 | 3.2 | 0.00 | 1.65 | 1.65 | 87 | 1012.6 |
| 20260906035602 | 25 | 302 | 0.0 | 4.8 | 0.00 | 1.65 | 1.65 | 87 | 1012.6 |
| 20260906035504 | 25 | 304 | 0.0 | 4.8 | 0.00 | 1.65 | 1.65 | 87 | 1012.6 |
| 20260906035403 | 25 | 317 | 0.0 | 4.8 | 0.00 | 1.65 | 1.65 | 87 | 1012.6 |
| 20260906035305 | 25 | 309 | 0.0 | 4.8 | 0.00 | 1.65 | 1.65 | 87 | 1012.7 |
| 20260906035203 | 25 | 312 | 0.0 | 4.8 | 0.00 | 1.65 | 1.65 | 87 | 1012.6 |
| 20260906035102 | 25 | 295 | 3.2 | 4.8 | 0.00 | 1.65 | 1.65 | 87 | 1012.8 |
| 20260906035004 | 25 | 314 | 0.0 | 4.8 | 0.00 | 1.65 | 1.65 | 87 | 1012.8 |
| 20260906034902 | 25 | 296 | 3.2 | 4.8 | 0.00 | 1.65 | 1.65 | 87 | 1012.8 |
| 20260906034701 | 25 | 314 | 3.2 | 4.8 | 0.00 | 1.65 | 1.65 | 87 | 1012.9 |
| 20260906034601 | 25 | 300 | 3.2 | 4.8 | 0.00 | 1.65 | 1.65 | 87 | 1012.9 |
| 20260906034504 | 25 | 295 | 3.2 | 4.8 | 0.00 | 1.65 | 1.65 | 87 | 1013.0 |
| 20260906034302 | 25 | 310 | 3.2 | 4.8 | 0.00 | 1.65 | 1.65 | 87 | 1012.8 |
| 20260906034202 | 25 | 300 | 3.2 | 4.8 | 0.00 | 1.65 | 1.65 | 87 | 1012.9 |
| 20260906034101 | 25 | 314 | 3.2 | 4.8 | 0.00 | 1.65 | 1.65 | 87 | 1013.0 |
| 20260906034005 | 25 | 305 | 3.2 | 4.8 | 0.00 | 1.65 | 1.65 | 87 | 1013.0 |
| 20260906033902 | 25 | 312 | 4.8 | 4.8 | 0.00 | 1.65 | 1.65 | 87 | 1013.0 |
| 20260906033802 | 25 | 323 | 3.2 | 4.8 | 0.00 | 1.65 | 1.65 | 87 | 1013.0 |
| 20260906033702 | 25 | 324 | 3.2 | 4.8 | 0.00 | 1.65 | 1.65 | 87 | 1012.9 |
| 20260906033601 | 25 | 309 | 3.2 | 4.8 | 0.00 | 1.65 | 1.65 | 87 | 1013.0 |
| 20260906033504 | 25 | 319 | 4.8 | 4.8 | 0.00 | 1.65 | 1.65 | 87 | 1013.0 |
| 20260906033301 | 25 | 342 | 3.2 | 4.8 | 0.00 | 1.65 | 1.65 | 87 | 1012.9 |
| 20260906033202 | 25 | 321 | 3.2 | 4.8 | 0.00 | 1.65 | 1.65 | 87 | 1013.0 |
| 20260906033101 | 25 | 340 | 3.2 | 4.8 | 0.00 | 1.65 | 1.65 | 87 | 1013.0 |
| 20260906033004 | 25 | 329 | 3.2 | 4.8 | 0.00 | 1.65 | 1.65 | 87 | 1013.0 |
| 20260906032901 | 25 | 317 | 3.2 | 4.8 | 0.00 | 1.65 | 1.65 | 87 | 1013.0 |
| 20260906032803 | 25 | 307 | 3.2 | 4.8 | 0.00 | 1.65 | 1.65 | 87 | 1013.1 |
| 20260906032702 | 25 | 300 | 3.2 | 4.8 | 0.00 | 1.65 | 1.65 | 88 | 1013.0 |
| 20260906032602 | 25 | 311 | 3.2 | 4.8 | 0.00 | 1.65 | 1.65 | 88 | 1013.0 |
| 20260906032504 | 25 | 319 | 3.2 | 4.8 | 0.00 | 1.65 | 1.65 | 88 | 1013.0 |
| 20260906032402 | 25 | 309 | 3.2 | 4.8 | 0.00 | 1.65 | 1.65 | 88 | 1013.1 |
| 20260906032305 | 25 | 314 | 3.2 | 3.2 | 0.00 | 1.65 | 1.65 | 88 | 1013.1 |
| 20260906032103 | 25 | 295 | 3.2 | 4.8 | 0.00 | 1.65 | 1.65 | 88 | 1013.1 |
| 20260906032005 | 25 | 323 | 3.2 | 4.8 | 0.00 | 1.65 | 1.65 | 88 | 1013.1 |
| 20260906031803 | 25 | 326 | 0.0 | 4.8 | 0.00 | 1.65 | 1.65 | 88 | 1013.1 |
| 20260906031701 | 25 | 288 | 1.6 | 4.8 | 0.00 | 1.65 | 1.65 | 88 | 1013.1 |
| 20260906031602 | 25 | 311 | 0.0 | 4.8 | 0.00 | 1.65 | 1.65 | 88 | 1013.2 |
| 20260906031302 | 25 | 316 | 1.6 | 4.8 | 0.00 | 1.65 | 1.65 | 88 | 1013.2 |
| 20260906031201 | 25 | 317 | 0.0 | 4.8 | 0.00 | 1.65 | 1.65 | 88 | 1013.2 |
| 20260906031004 | 25 | 302 | 1.6 | 4.8 | 0.00 | 1.65 | 1.65 | 88 | 1013.2 |
| 20260906030901 | 25 | 312 | 3.2 | 4.8 | 0.00 | 1.65 | 1.65 | 88 | 1013.3 |
| 20260906030802 | 25 | 301 | 1.6 | 4.8 | 0.00 | 1.65 | 1.65 | 88 | 1013.3 |
| 20260906030701 | 25 | 307 | 1.6 | 4.8 | 0.00 | 1.65 | 1.65 | 88 | 1013.3 |
| 20260906030603 | 25 | 330 | 1.6 | 4.8 | 0.00 | 1.65 | 1.65 | 88 | 1013.2 |
| 20260906030503 | 25 | 319 | 3.2 | 4.8 | 0.00 | 1.65 | 1.65 | 88 | 1013.3 |
| 20260906030401 | 25 | 321 | 3.2 | 4.8 | 0.00 | 1.65 | 1.65 | 88 | 1013.2 |
| 20260906030302 | 25 | 328 | 3.2 | 4.8 | 0.00 | 1.65 | 1.65 | 88 | 1013.2 |
| 20260906030203 | 25 | 303 | 3.2 | 4.8 | 0.00 | 1.65 | 1.65 | 88 | 1013.2 |
| 20260906030007 | 25 | 314 | 1.6 | 4.8 | 0.00 | 1.65 | 1.65 | 88 | 1013.1 |
| 20260906025902 | 25 | 321 | 3.2 | 4.8 | 0.00 | 1.65 | 1.65 | 88 | 1013.1 |
| 20260906025801 | 25 | 330 | 3.2 | 4.8 | 0.00 | 1.65 | 1.65 | 88 | 1013.1 |
| 20260906025703 | 25 | 326 | 3.2 | 4.8 | 0.00 | 1.65 | 1.65 | 88 | 1013.1 |
| 20260906025602 | 25 | 309 | 3.2 | 4.8 | 0.00 | 1.65 | 1.65 | 89 | 1013.1 |
| 20260906025504 | 25 | 307 | 3.2 | 4.8 | 0.00 | 1.65 | 1.65 | 89 | 1013.0 |
| 20260906025402 | 25 | 302 | 3.2 | 4.8 | 0.00 | 1.65 | 1.65 | 89 | 1013.0 |
| 20260906025306 | 25 | 297 | 3.2 | 4.8 | 0.00 | 1.65 | 1.65 | 89 | 1013.0 |
| 20260906025203 | 25 | 295 | 3.2 | 4.8 | 0.00 | 1.65 | 1.65 | 89 | 1013.0 |
| 20260906025102 | 25 | 305 | 3.2 | 4.8 | 0.00 | 1.65 | 1.65 | 89 | 1012.9 |
| 20260906024903 | 25 | 323 | 0.0 | 4.8 | 0.00 | 1.65 | 1.65 | 89 | 1012.8 |
| 20260906024800 | 25 | 309 | 1.6 | 4.8 | 0.00 | 1.65 | 1.65 | 89 | 1012.7 |
| 20260906024701 | 25 | 303 | 3.2 | 4.8 | 0.00 | 1.65 | 1.65 | 89 | 1012.7 |
| 20260906024602 | 25 | 337 | 0.0 | 4.8 | 0.00 | 1.65 | 1.65 | 89 | 1012.8 |
| 20260906024504 | 25 | 312 | 1.6 | 4.8 | 0.00 | 1.65 | 1.65 | 89 | 1012.8 |
| 20260906024301 | 25 | 287 | 3.2 | 4.8 | 0.00 | 1.65 | 1.65 | 89 | 1012.8 |
| 20260906024202 | 25 | 302 | 3.2 | 4.8 | 0.00 | 1.65 | 1.65 | 89 | 1012.8 |
| 20260906024004 | 25 | 296 | 3.2 | 4.8 | 0.00 | 1.65 | 1.65 | 89 | 1012.9 |
| 20260906023903 | 25 | 307 | 3.2 | 4.8 | 0.00 | 1.65 | 1.65 | 89 | 1013.0 |
| 20260906023802 | 25 | 293 | 3.2 | 4.8 | 0.00 | 1.65 | 1.65 | 89 | 1013.1 |
| 20260906023702 | 25 | 286 | 3.2 | 4.8 | 0.00 | 1.65 | 1.65 | 89 | 1012.9 |
| 20260906023602 | 25 | 295 | 3.2 | 4.8 | 0.00 | 1.65 | 1.65 | 89 | 1013.0 |
| 20260906023402 | 25 | 289 | 3.2 | 4.8 | 0.00 | 1.65 | 1.65 | 89 | 1013.0 |
| 20260906023301 | 25 | 302 | 1.6 | 4.8 | 0.00 | 1.65 | 1.65 | 89 | 1013.0 |
| 20260906023102 | 25 | 319 | 3.2 | 4.8 | 0.00 | 1.65 | 1.65 | 89 | 1012.9 |
| 20260906023004 | 25 | 310 | 3.2 | 4.8 | 0.00 | 1.65 | 1.65 | 89 | 1012.8 |
| 20260906022802 | 25 | 302 | 3.2 | 4.8 | 0.00 | 1.65 | 1.65 | 89 | 1012.8 |
| 20260906022702 | 25 | 277 | 3.2 | 4.8 | 0.00 | 1.65 | 1.65 | 89 | 1012.8 |
| 20260906022503 | 25 | 300 | 4.8 | 4.8 | 0.00 | 1.65 | 1.65 | 89 | 1012.7 |
| 20260906022403 | 25 | 278 | 3.2 | 4.8 | 0.00 | 1.65 | 1.65 | 89 | 1012.7 |
| 20260906022301 | 25 | 279 | 4.8 | 4.8 | 0.00 | 1.65 | 1.65 | 89 | 1012.7 |
| 20260906022202 | 25 | 277 | 3.2 | 4.8 | 0.00 | 1.65 | 1.65 | 89 | 1012.7 |
| 20260906021901 | 25 | 297 | 3.2 | 4.8 | 0.00 | 1.65 | 1.65 | 89 | 1012.6 |
| 20260906021802 | 25 | 281 | 3.2 | 4.8 | 0.00 | 1.65 | 1.65 | 89 | 1012.6 |
| 20260906021702 | 25 | 310 | 3.2 | 4.8 | 0.00 | 1.65 | 1.65 | 89 | 1012.6 |
| 20260906021602 | 25 | 297 | 3.2 | 4.8 | 0.00 | 1.65 | 1.65 | 89 | 1012.6 |
| 20260906021504 | 25 | 316 | 3.2 | 4.8 | 0.00 | 1.65 | 1.65 | 89 | 1012.5 |
| 20260906021403 | 25 | 287 | 3.2 | 4.8 | 0.00 | 1.65 | 1.65 | 89 | 1012.5 |
| 20260906021302 | 25 | 281 | 3.2 | 4.8 | 0.00 | 1.65 | 1.65 | 89 | 1012.5 |
| 20260906021202 | 25 | 296 | 1.6 | 4.8 | 0.00 | 1.65 | 1.65 | 88 | 1012.5 |
| 20260906021102 | 25 | 307 | 4.8 | 4.8 | 0.00 | 1.65 | 1.65 | 88 | 1012.4 |
| 20260906020902 | 25 | 279 | 3.2 | 4.8 | 0.00 | 1.65 | 1.65 | 88 | 1012.4 |
| 20260906020702 | 25 | 316 | 1.6 | 4.8 | 0.00 | 1.65 | 1.65 | 88 | 1012.3 |
| 20260906020602 | 25 | 271 | 3.2 | 4.8 | 0.00 | 1.65 | 1.65 | 88 | 1012.3 |
| 20260906020402 | 25 | 309 | 3.2 | 4.8 | 0.00 | 1.65 | 1.65 | 88 | 1012.3 |
| 20260906020301 | 25 | 300 | 3.2 | 4.8 | 0.00 | 1.65 | 1.65 | 88 | 1012.2 |
| 20260906020202 | 25 | 303 | 3.2 | 4.8 | 0.00 | 1.65 | 1.65 | 88 | 1012.3 |
| 20260906020104 | 25 | 295 | 3.2 | 4.8 | 0.00 | 1.65 | 1.65 | 88 | 1012.3 |
| 20260906020004 | 25 | 304 | 3.2 | 4.8 | 0.00 | 1.65 | 1.65 | 88 | 1012.3 |
| 20260906015903 | 25 | 295 | 3.2 | 4.8 | 0.00 | 1.65 | 1.65 | 88 | 1012.3 |
| 20260906015802 | 25 | 295 | 3.2 | 4.8 | 0.00 | 1.65 | 1.65 | 88 | 1012.3 |
| 20260906015702 | 25 | 301 | 3.2 | 4.8 | 0.00 | 1.65 | 1.65 | 88 | 1012.3 |
| 20260906015602 | 25 | 293 | 3.2 | 4.8 | 0.00 | 1.65 | 1.65 | 88 | 1012.4 |
| 20260906015504 | 25 | 284 | 3.2 | 4.8 | 0.00 | 1.65 | 1.65 | 88 | 1012.4 |
| 20260906015401 | 25 | 302 | 3.2 | 4.8 | 0.00 | 1.65 | 1.65 | 88 | 1012.4 |
| 20260906015305 | 25 | 317 | 3.2 | 4.8 | 0.00 | 1.65 | 1.65 | 88 | 1012.3 |
| 20260906015201 | 25 | 303 | 3.2 | 4.8 | 0.00 | 1.65 | 1.65 | 88 | 1012.5 |
| 20260906015102 | 25 | 333 | 1.6 | 4.8 | 0.00 | 1.65 | 1.65 | 88 | 1012.4 |
| 20260906015006 | 25 | 314 | 3.2 | 4.8 | 0.00 | 1.65 | 1.65 | 88 | 1012.4 |
| 20260906014903 | 25 | 296 | 3.2 | 4.8 | 0.00 | 1.65 | 1.65 | 88 | 1012.3 |
| 20260906014801 | 25 | 319 | 3.2 | 4.8 | 0.00 | 1.65 | 1.65 | 88 | 1012.3 |
| 20260906014600 | 25 | 321 | 3.2 | 4.8 | 0.00 | 1.65 | 1.65 | 88 | 1012.3 |
| 20260906014504 | 25 | 310 | 3.2 | 4.8 | 0.00 | 1.65 | 1.65 | 88 | 1012.2 |
| 20260906014402 | 25 | 316 | 0.0 | 4.8 | 0.00 | 1.65 | 1.65 | 88 | 1012.2 |
| 20260906014202 | 25 | 300 | 3.2 | 4.8 | 0.00 | 1.65 | 1.65 | 88 | 1012.1 |
| 20260906014101 | 25 | 324 | 0.0 | 4.8 | 0.00 | 1.65 | 1.65 | 88 | 1012.1 |
| 20260906013901 | 25 | 309 | 3.2 | 4.8 | 0.00 | 1.65 | 1.65 | 88 | 1012.1 |
| 20260906013702 | 25 | 296 | 3.2 | 4.8 | 0.00 | 1.65 | 1.65 | 88 | 1011.9 |
| 20260906013601 | 25 | 293 | 1.6 | 4.8 | 0.00 | 1.65 | 1.65 | 88 | 1012.0 |
| 20260906013504 | 26 | 305 | 3.2 | 4.8 | 0.00 | 1.65 | 1.65 | 88 | 1011.9 |
| 20260906013403 | 26 | 311 | 3.2 | 4.8 | 0.00 | 1.65 | 1.65 | 88 | 1011.9 |
| 20260906013301 | 26 | 302 | 4.8 | 4.8 | 0.00 | 1.65 | 1.65 | 88 | 1012.0 |
| 20260906013201 | 26 | 328 | 3.2 | 4.8 | 0.00 | 1.65 | 1.65 | 88 | 1011.9 |
| 20260906013102 | 25 | 295 | 3.2 | 4.8 | 0.00 | 1.65 | 1.65 | 88 | 1011.9 |
| 20260906013005 | 26 | 295 | 3.2 | 4.8 | 0.00 | 1.65 | 1.65 | 87 | 1011.9 |
| 20260906012902 | 26 | 333 | 0.0 | 4.8 | 0.00 | 1.65 | 1.65 | 87 | 1011.9 |
| 20260906012803 | 26 | 304 | 3.2 | 4.8 | 0.00 | 1.65 | 1.65 | 87 | 1011.9 |
| 20260906012702 | 26 | 326 | 1.6 | 4.8 | 0.00 | 1.65 | 1.65 | 87 | 1011.9 |
| 20260906012601 | 26 | 303 | 3.2 | 4.8 | 0.00 | 1.65 | 1.65 | 87 | 1011.9 |
| 20260906012504 | 26 | 283 | 3.2 | 4.8 | 0.00 | 1.65 | 1.65 | 87 | 1011.9 |
| 20260906012402 | 26 | 307 | 1.6 | 4.8 | 0.00 | 1.65 | 1.65 | 87 | 1011.9 |
| 20260906012301 | 26 | 314 | 3.2 | 4.8 | 0.00 | 1.65 | 1.65 | 87 | 1012.0 |
| 20260906012202 | 26 | 308 | 3.2 | 4.8 | 0.00 | 1.65 | 1.65 | 87 | 1012.0 |
| 20260906012102 | 26 | 262 | 0.0 | 4.8 | 0.00 | 1.65 | 1.65 | 87 | 1011.9 |
| 20260906012005 | 26 | 304 | 3.2 | 4.8 | 0.00 | 1.65 | 1.65 | 87 | 1011.9 |
| 20260906011802 | 26 | 286 | 0.0 | 4.8 | 0.00 | 1.65 | 1.65 | 87 | 1011.8 |
| 20260906011703 | 26 | 303 | 3.2 | 4.8 | 0.00 | 1.65 | 1.65 | 87 | 1011.8 |
| 20260906011602 | 26 | 294 | 3.2 | 4.8 | 0.00 | 1.65 | 1.65 | 87 | 1011.8 |
| 20260906011504 | 26 | 283 | 3.2 | 4.8 | 0.00 | 1.65 | 1.65 | 87 | 1011.6 |
| 20260906011402 | 26 | 312 | 1.6 | 4.8 | 0.00 | 1.65 | 1.65 | 87 | 1011.7 |
| 20260906011303 | 26 | 295 | 3.2 | 4.8 | 0.00 | 1.65 | 1.65 | 87 | 1011.7 |
| 20260906011201 | 26 | 314 | 3.2 | 4.8 | 0.00 | 1.65 | 1.65 | 87 | 1011.7 |
| 20260906011102 | 26 | 307 | 3.2 | 4.8 | 0.00 | 1.65 | 1.65 | 87 | 1011.7 |
| 20260906011004 | 26 | 316 | 3.2 | 4.8 | 0.00 | 1.65 | 1.65 | 87 | 1011.7 |
| 20260906010902 | 26 | 290 | 3.2 | 4.8 | 0.00 | 1.65 | 1.65 | 87 | 1011.7 |
| 20260906010802 | 26 | 314 | 3.2 | 4.8 | 0.00 | 1.65 | 1.65 | 87 | 1011.6 |
| 20260906010602 | 26 | 330 | 3.2 | 4.8 | 0.00 | 1.65 | 1.65 | 87 | 1011.6 |
| 20260906010402 | 26 | 303 | 3.2 | 4.8 | 0.00 | 1.65 | 1.65 | 87 | 1011.5 |
| 20260906010301 | 26 | 293 | 1.6 | 4.8 | 0.00 | 1.65 | 1.65 | 87 | 1011.5 |
| 20260906010202 | 26 | 316 | 3.2 | 4.8 | 0.00 | 1.65 | 1.65 | 87 | 1011.6 |
| 20260906010006 | 26 | 295 | 3.2 | 4.8 | 0.00 | 1.65 | 1.65 | 87 | 1011.5 |
| 20260906005902 | 26 | 314 | 3.2 | 4.8 | 0.00 | 1.65 | 1.65 | 86 | 1011.5 |
| 20260906005801 | 26 | 309 | 1.6 | 4.8 | 0.00 | 1.65 | 1.65 | 86 | 1011.5 |
| 20260906005701 | 26 | 314 | 3.2 | 4.8 | 0.00 | 1.65 | 1.65 | 86 | 1011.5 |
| 20260906005601 | 26 | 300 | 3.2 | 4.8 | 0.00 | 1.65 | 1.65 | 86 | 1011.5 |
| 20260906005503 | 26 | 295 | 3.2 | 4.8 | 0.00 | 1.65 | 1.65 | 86 | 1011.6 |
| 20260906005402 | 26 | 300 | 4.8 | 4.8 | 0.00 | 1.65 | 1.65 | 86 | 1011.5 |
| 20260906005306 | 26 | 307 | 3.2 | 4.8 | 0.00 | 1.65 | 1.65 | 86 | 1011.5 |
| 20260906005005 | 26 | 263 | 0.0 | 4.8 | 0.00 | 1.65 | 1.65 | 86 | 1011.5 |
| 20260906004904 | 26 | 280 | 3.2 | 4.8 | 0.00 | 1.65 | 1.65 | 86 | 1011.4 |
| 20260906004801 | 26 | 283 | 3.2 | 4.8 | 0.00 | 1.65 | 1.65 | 86 | 1011.4 |
| 20260906004603 | 26 | 291 | 3.2 | 4.8 | 0.00 | 1.65 | 1.65 | 86 | 1011.4 |
| 20260906004505 | 26 | 285 | 4.8 | 4.8 | 0.00 | 1.65 | 1.65 | 86 | 1011.4 |
| 20260906004403 | 26 | 312 | 3.2 | 4.8 | 0.00 | 1.65 | 1.65 | 85 | 1011.5 |
| 20260906004302 | 26 | 314 | 3.2 | 4.8 | 0.00 | 1.65 | 1.65 | 85 | 1011.4 |
| 20260906004202 | 26 | 309 | 1.6 | 4.8 | 0.00 | 1.65 | 1.65 | 85 | 1011.4 |
| 20260906004004 | 26 | 319 | 3.2 | 4.8 | 0.00 | 1.65 | 1.65 | 85 | 1011.4 |
| 20260906003901 | 26 | 293 | 3.2 | 4.8 | 0.00 | 1.65 | 1.65 | 85 | 1011.4 |
| 20260906003802 | 26 | 312 | 3.2 | 4.8 | 0.00 | 1.65 | 1.65 | 85 | 1011.4 |
| 20260906003701 | 26 | 301 | 3.2 | 4.8 | 0.00 | 1.65 | 1.65 | 85 | 1011.4 |
| 20260906003602 | 26 | 316 | 3.2 | 4.8 | 0.00 | 1.65 | 1.65 | 85 | 1011.5 |
| 20260906003503 | 26 | 303 | 3.2 | 4.8 | 0.00 | 1.65 | 1.65 | 85 | 1011.5 |
| 20260906003401 | 26 | 303 | 4.8 | 4.8 | 0.00 | 1.65 | 1.65 | 85 | 1011.4 |
| 20260906003303 | 26 | 329 | 3.2 | 4.8 | 0.00 | 1.65 | 1.65 | 85 | 1011.5 |
| 20260906003201 | 26 | 293 | 3.2 | 4.8 | 0.00 | 1.65 | 1.65 | 85 | 1011.4 |
| 20260906003103 | 26 | 295 | 3.2 | 4.8 | 0.00 | 1.65 | 1.65 | 85 | 1011.4 |
| 20260906003004 | 26 | 287 | 3.2 | 4.8 | 0.00 | 1.65 | 1.65 | 85 | 1011.3 |
| 20260906002802 | 26 | 287 | 0.0 | 4.8 | 0.00 | 1.65 | 1.65 | 85 | 1011.2 |
| 20260906002701 | 26 | 275 | 0.0 | 4.8 | 0.00 | 1.65 | 1.65 | 85 | 1011.3 |
| 20260906002401 | 26 | 292 | 3.2 | 4.8 | 0.00 | 1.65 | 1.65 | 84 | 1011.3 |
| 20260906002305 | 26 | 281 | 3.2 | 4.8 | 0.00 | 1.65 | 1.65 | 84 | 1011.4 |
| 20260906002201 | 26 | 297 | 3.2 | 4.8 | 0.00 | 1.65 | 1.65 | 84 | 1011.4 |
| 20260906002103 | 26 | 296 | 0.0 | 4.8 | 0.00 | 1.65 | 1.65 | 84 | 1011.4 |
| 20260906002004 | 26 | 302 | 1.6 | 4.8 | 0.00 | 1.65 | 1.65 | 84 | 1011.5 |
| 20260906001902 | 26 | 329 | 0.0 | 4.8 | 0.00 | 1.65 | 1.65 | 84 | 1011.5 |
| 20260906001802 | 26 | 286 | 3.2 | 4.8 | 0.00 | 1.65 | 1.65 | 84 | 1011.5 |
| 20260906001701 | 26 | 303 | 3.2 | 4.8 | 0.00 | 1.65 | 1.65 | 84 | 1011.5 |
| 20260906001601 | 26 | 256 | 0.0 | 4.8 | 0.00 | 1.65 | 1.65 | 84 | 1011.4 |
| 20260906001506 | 26 | 274 | 3.2 | 4.8 | 0.00 | 1.65 | 1.65 | 84 | 1011.4 |
| 20260906001401 | 26 | 300 | 0.0 | 4.8 | 0.00 | 1.65 | 1.65 | 83 | 1011.4 |
| 20260906001302 | 26 | 261 | 0.0 | 4.8 | 0.00 | 1.65 | 1.65 | 83 | 1011.5 |
| 20260906001202 | 26 | 279 | 3.2 | 4.8 | 0.00 | 1.65 | 1.65 | 83 | 1011.4 |
| 20260906001103 | 26 | 284 | 3.2 | 4.8 | 0.00 | 1.65 | 1.65 | 83 | 1011.4 |
| 20260906000902 | 26 | 284 | 1.6 | 4.8 | 0.00 | 1.65 | 1.65 | 83 | 1011.4 |
| 20260906000801 | 26 | 286 | 4.8 | 4.8 | 0.00 | 1.65 | 1.65 | 83 | 1011.4 |
| 20260906000702 | 26 | 293 | 0.0 | 4.8 | 0.00 | 1.65 | 1.65 | 83 | 1011.4 |
| 20260906000601 | 26 | 284 | 3.2 | 4.8 | 0.00 | 1.65 | 1.65 | 83 | 1011.2 |
| 20260906000504 | 26 | 270 | 3.2 | 4.8 | 0.00 | 1.65 | 1.65 | 82 | 1011.2 |
| 20260906000403 | 26 | 328 | 3.2 | 4.8 | 0.00 | 1.65 | 1.65 | 82 | 1011.2 |
| 20260906000303 | 26 | 304 | 3.2 | 4.8 | 0.00 | 1.65 | 1.65 | 82 | 1011.3 |
| 20260906000200 | 27 | 305 | 1.6 | 4.8 | 0.00 | 1.65 | 1.65 | 82 | 1011.1 |
| 20260906000004 | 27 | 288 | 3.2 | 4.8 | 0.00 | 1.65 | 1.65 | 82 | 1011.2 |
| 20260905235902 | 27 | 326 | 3.2 | 4.8 | 0.00 | 1.65 | 1.65 | 82 | 1011.3 |
| 20260905235802 | 27 | 274 | 4.8 | 4.8 | 0.00 | 1.65 | 1.65 | 82 | 1011.3 |
| 20260905235701 | 27 | 319 | 3.2 | 4.8 | 0.00 | 1.65 | 1.65 | 82 | 1011.4 |
| 20260905235601 | 27 | 321 | 4.8 | 4.8 | 0.00 | 1.65 | 1.65 | 82 | 1011.4 |
| 20260905235504 | 27 | 338 | 3.2 | 4.8 | 0.00 | 1.65 | 1.65 | 82 | 1011.4 |
| 20260905235202 | 27 | 333 | 3.2 | 4.8 | 0.00 | 1.65 | 1.65 | 82 | 1011.4 |
| 20260905235101 | 27 | 292 | 0.0 | 4.8 | 0.00 | 1.65 | 1.65 | 82 | 1011.4 |
| 20260905235003 | 27 | 345 | 3.2 | 4.8 | 0.00 | 1.65 | 1.65 | 82 | 1011.4 |
| 20260905234901 | 27 | 271 | 0.0 | 4.8 | 0.00 | 1.65 | 1.65 | 82 | 1011.4 |
| 20260905234802 | 27 | 287 | 0.0 | 4.8 | 0.00 | 1.65 | 1.65 | 81 | 1011.4 |
| 20260905234602 | 27 | 278 | 1.6 | 4.8 | 0.00 | 1.65 | 1.65 | 81 | 1011.5 |
| 20260905234504 | 27 | 311 | 0.0 | 4.8 | 0.00 | 1.65 | 1.65 | 81 | 1011.5 |
| 20260905234402 | 27 | 260 | 4.8 | 4.8 | 0.00 | 1.65 | 1.65 | 81 | 1011.5 |
| 20260905234301 | 27 | 287 | 0.0 | 4.8 | 0.00 | 1.65 | 1.65 | 81 | 1011.4 |
| 20260905234103 | 27 | 296 | 0.0 | 4.8 | 0.00 | 1.65 | 1.65 | 81 | 1011.6 |
| 20260905233903 | 27 | 262 | 1.6 | 4.8 | 0.00 | 1.65 | 1.65 | 81 | 1011.6 |
| 20260905233802 | 27 | 259 | 0.0 | 4.8 | 0.00 | 1.65 | 1.65 | 81 | 1011.6 |
| 20260905233702 | 27 | 212 | 0.0 | 6.4 | 0.00 | 1.65 | 1.65 | 81 | 1011.6 |
| 20260905233504 | 27 | 297 | 0.0 | 6.4 | 0.00 | 1.65 | 1.65 | 81 | 1011.5 |
| 20260905233403 | 27 | 296 | 0.0 | 6.4 | 0.00 | 1.65 | 1.65 | 80 | 1011.5 |
| 20260905233301 | 27 | 273 | 0.0 | 6.4 | 0.00 | 1.65 | 1.65 | 80 | 1011.5 |
| 20260905233201 | 27 | 277 | 3.2 | 6.4 | 0.00 | 1.65 | 1.65 | 80 | 1011.5 |
| 20260905233101 | 27 | 270 | 1.6 | 6.4 | 0.00 | 1.65 | 1.65 | 80 | 1011.6 |
| 20260905232902 | 27 | 297 | 3.2 | 6.4 | 0.00 | 1.65 | 1.65 | 80 | 1011.5 |
| 20260905232802 | 27 | 315 | 0.0 | 6.4 | 0.00 | 1.65 | 1.65 | 80 | 1011.5 |
| 20260905232503 | 27 | 233 | 0.0 | 4.8 | 0.00 | 1.65 | 1.65 | 80 | 1011.6 |
| 20260905232400 | 27 | 292 | 0.0 | 4.8 | 0.00 | 1.65 | 1.65 | 80 | 1011.6 |
| 20260905232301 | 27 | 303 | 3.2 | 6.4 | 0.00 | 1.65 | 1.65 | 80 | 1011.6 |
| 20260905232101 | 27 | 274 | 1.6 | 8.0 | 0.00 | 1.65 | 1.65 | 79 | 1011.5 |
| 20260905231902 | 28 | 281 | 3.2 | 8.0 | 0.00 | 1.65 | 1.65 | 79 | 1011.5 |
| 20260905231802 | 28 | 249 | 0.0 | 8.0 | 0.00 | 1.65 | 1.65 | 78 | 1011.5 |
| 20260905231702 | 28 | 128 | 0.0 | 8.0 | 0.00 | 1.65 | 1.65 | 79 | 1011.5 |
| 20260905231601 | 28 | 279 | 3.2 | 8.0 | 0.00 | 1.65 | 1.65 | 79 | 1011.6 |
| 20260905231503 | 28 | 258 | 3.2 | 8.0 | 0.00 | 1.65 | 1.65 | 79 | 1011.5 |
| 20260905231401 | 28 | 226 | 0.0 | 8.0 | 0.00 | 1.65 | 1.65 | 79 | 1011.6 |
| 20260905231302 | 28 | 275 | 4.8 | 8.0 | 0.00 | 1.65 | 1.65 | 79 | 1011.6 |
| 20260905231201 | 28 | 269 | 0.0 | 4.8 | 0.00 | 1.65 | 1.65 | 79 | 1011.6 |
| 20260905231101 | 28 | 307 | 4.8 | 4.8 | 0.00 | 1.65 | 1.65 | 78 | 1011.7 |
| 20260905231003 | 28 | 245 | 3.2 | 4.8 | 0.00 | 1.65 | 1.65 | 78 | 1011.7 |
| 20260905230901 | 28 | 241 | 0.0 | 6.4 | 0.00 | 1.65 | 1.65 | 78 | 1011.7 |
| 20260905230801 | 28 | 285 | 4.8 | 6.4 | 0.00 | 1.65 | 1.65 | 78 | 1011.7 |
| 20260905230702 | 28 | 287 | 4.8 | 6.4 | 0.00 | 1.65 | 1.65 | 78 | 1011.7 |
| 20260905230601 | 28 | 15 | 4.8 | 6.4 | 0.00 | 1.65 | 1.65 | 78 | 1011.6 |
| 20260905230503 | 28 | 277 | 0.0 | 6.4 | 0.00 | 1.65 | 1.65 | 77 | 1011.6 |
| 20260905230403 | 28 | 288 | 0.0 | 6.4 | 0.00 | 1.65 | 1.65 | 77 | 1011.6 |
| 20260905230301 | 28 | 262 | 0.0 | 6.4 | 0.00 | 1.65 | 1.65 | 77 | 1011.6 |
| 20260905230201 | 28 | 289 | 0.0 | 6.4 | 0.00 | 1.65 | 1.65 | 77 | 1011.6 |
| 20260905230101 | 28 | 333 | 0.0 | 6.4 | 0.00 | 1.65 | 1.65 | 77 | 1011.6 |
| 20260905230004 | 28 | 296 | 3.2 | 6.4 | 0.00 | 1.65 | 1.65 | 78 | 1011.6 |
| 20260905225901 | 28 | 263 | 0.0 | 3.2 | 0.00 | 1.65 | 1.65 | 78 | 1011.6 |
| 20260905225801 | 28 | 333 | 3.2 | 4.8 | 0.00 | 1.65 | 1.65 | 78 | 1011.6 |
| 20260905225601 | 28 | 340 | 0.0 | 4.8 | 0.00 | 1.65 | 1.65 | 77 | 1011.7 |
| 20260905225503 | 28 | 267 | 1.6 | 4.8 | 0.00 | 1.65 | 1.65 | 78 | 1011.6 |
| 20260905225400 | 28 | 319 | 0.0 | 4.8 | 0.00 | 1.65 | 1.65 | 78 | 1011.7 |
| 20260905225305 | 28 | 319 | 0.0 | 4.8 | 0.00 | 1.65 | 1.65 | 78 | 1011.7 |
| 20260905225201 | 28 | 319 | 0.0 | 4.8 | 0.00 | 1.65 | 1.65 | 78 | 1011.7 |
| 20260905225101 | 28 | 319 | 0.0 | 4.8 | 0.00 | 1.65 | 1.65 | 78 | 1011.7 |
| 20260905225003 | 28 | 306 | 0.0 | 4.8 | 0.00 | 1.65 | 1.65 | 78 | 1011.7 |
| 20260905224800 | 28 | 273 | 0.0 | 4.8 | 0.00 | 1.65 | 1.65 | 78 | 1011.7 |
| 20260905224600 | 28 | 256 | 0.0 | 4.8 | 0.00 | 1.65 | 1.65 | 80 | 1011.6 |
| 20260905224502 | 28 | 311 | 0.0 | 4.8 | 0.00 | 1.65 | 1.65 | 80 | 1011.6 |
| 20260905224400 | 28 | 300 | 0.0 | 4.8 | 0.00 | 1.65 | 1.65 | 80 | 1011.6 |
| 20260905224300 | 28 | 287 | 3.2 | 4.8 | 0.00 | 1.65 | 1.65 | 79 | 1011.5 |
| 20260905224200 | 28 | 270 | 0.0 | 4.8 | 0.00 | 1.65 | 1.65 | 79 | 1011.6 |
| 20260905224101 | 28 | 295 | 3.2 | 4.8 | 0.00 | 1.65 | 1.65 | 79 | 1011.6 |
| 20260905224003 | 28 | 319 | 1.6 | 4.8 | 0.00 | 1.65 | 1.65 | 79 | 1011.6 |
| 20260905223800 | 28 | 326 | 0.0 | 4.8 | 0.00 | 1.65 | 1.65 | 79 | 1011.6 |
| 20260905223701 | 28 | 292 | 1.6 | 4.8 | 0.00 | 1.65 | 1.65 | 79 | 1011.6 |
| 20260905223502 | 28 | 311 | 3.2 | 4.8 | 0.00 | 1.65 | 1.65 | 79 | 1011.5 |
| 20260905223400 | 28 | 317 | 1.6 | 3.2 | 0.00 | 1.65 | 1.65 | 79 | 1011.6 |
| 20260905223300 | 28 | 285 | 1.6 | 4.8 | 0.00 | 1.65 | 1.65 | 79 | 1011.6 |
| 20260905223200 | 28 | 285 | 0.0 | 4.8 | 0.00 | 1.65 | 1.65 | 79 | 1011.6 |
| 20260905223100 | 28 | 282 | 0.0 | 4.8 | 0.00 | 1.65 | 1.65 | 79 | 1011.6 |
| 20260905223003 | 28 | 306 | 0.0 | 4.8 | 0.00 | 1.65 | 1.65 | 79 | 1011.6 |
| 20260905222901 | 28 | 296 | 0.0 | 4.8 | 0.00 | 1.65 | 1.65 | 78 | 1011.6 |
| 20260905222800 | 28 | 311 | 3.2 | 4.8 | 0.00 | 1.65 | 1.65 | 77 | 1011.5 |
| 20260905222701 | 28 | 82 | 0.0 | 4.8 | 0.00 | 1.65 | 1.65 | 77 | 1011.6 |
| 20260905222600 | 28 | 262 | 0.0 | 4.8 | 0.00 | 1.65 | 1.65 | 78 | 1011.6 |
| 20260905222503 | 28 | 281 | 0.0 | 4.8 | 0.00 | 1.65 | 1.65 | 78 | 1011.6 |
| 20260905222400 | 28 | 299 | 3.2 | 4.8 | 0.00 | 1.65 | 1.65 | 77 | 1011.5 |
| 20260905222301 | 28 | 277 | 0.0 | 4.8 | 0.00 | 1.65 | 1.65 | 78 | 1011.5 |
| 20260905222200 | 28 | 314 | 0.0 | 4.8 | 0.00 | 1.65 | 1.65 | 77 | 1011.5 |
| 20260905222100 | 28 | 279 | 0.0 | 4.8 | 0.00 | 1.65 | 1.65 | 77 | 1011.6 |
| 20260905222004 | 28 | 324 | 0.0 | 4.8 | 0.00 | 1.65 | 1.65 | 77 | 1011.5 |
| 20260905221901 | 28 | 302 | 3.2 | 4.8 | 0.00 | 1.65 | 1.65 | 78 | 1011.5 |
| 20260905221801 | 28 | 309 | 3.2 | 4.8 | 0.00 | 1.65 | 1.65 | 78 | 1011.6 |
| 20260905221701 | 28 | 331 | 0.0 | 4.8 | 0.00 | 1.65 | 1.65 | 78 | 1011.6 |
| 20260905221601 | 28 | 313 | 1.6 | 4.8 | 0.00 | 1.65 | 1.65 | 77 | 1011.6 |
| 20260905221502 | 28 | 308 | 0.0 | 4.8 | 0.00 | 1.65 | 1.65 | 77 | 1011.7 |
| 20260905221400 | 28 | 326 | 3.2 | 4.8 | 0.00 | 1.65 | 1.65 | 76 | 1011.7 |
| 20260905221300 | 28 | 319 | 3.2 | 4.8 | 0.00 | 1.65 | 1.65 | 77 | 1011.7 |
| 20260905221200 | 28 | 305 | 1.6 | 4.8 | 0.00 | 1.65 | 1.65 | 77 | 1011.8 |
| 20260905221101 | 28 | 356 | 3.2 | 4.8 | 0.00 | 1.65 | 1.65 | 77 | 1011.8 |
| 20260905220800 | 28 | 321 | 3.2 | 4.8 | 0.00 | 1.65 | 1.65 | 75 | 1011.7 |
| 20260905220701 | 28 | 328 | 1.6 | 4.8 | 0.00 | 1.65 | 1.65 | 75 | 1011.6 |
| 20260905220600 | 28 | 336 | 3.2 | 4.8 | 0.00 | 1.65 | 1.65 | 75 | 1011.7 |
| 20260905220503 | 28 | 339 | 0.0 | 4.8 | 0.00 | 1.65 | 1.65 | 76 | 1011.7 |
| 20260905220401 | 28 | 306 | 3.2 | 4.8 | 0.00 | 1.65 | 1.65 | 76 | 1011.7 |
| 20260905220301 | 28 | 264 | 1.6 | 4.8 | 0.00 | 1.65 | 1.65 | 76 | 1011.8 |
| 20260905220201 | 29 | 289 | 0.0 | 4.8 | 0.00 | 1.65 | 1.65 | 75 | 1011.7 |
| 20260905220100 | 29 | 296 | 0.0 | 4.8 | 0.00 | 1.65 | 1.65 | 74 | 1011.7 |
| 20260905220004 | 29 | 286 | 3.2 | 4.8 | 0.00 | 1.65 | 1.65 | 72 | 1011.9 |
| 20260905215800 | 28 | 8 | 3.2 | 4.8 | 0.00 | 1.65 | 1.65 | 73 | 1011.9 |
| 20260905215701 | 28 | 355 | 3.2 | 4.8 | 0.00 | 1.65 | 1.65 | 77 | 1012.0 |
| 20260905215600 | 28 | 338 | 3.2 | 4.8 | 0.00 | 1.65 | 1.65 | 77 | 1012.0 |
| 20260905215401 | 28 | 330 | 3.2 | 4.8 | 0.00 | 1.65 | 1.65 | 78 | 1012.0 |
| 20260905215300 | 28 | 330 | 1.6 | 4.8 | 0.00 | 1.65 | 1.65 | 78 | 1012.0 |
| 20260905215201 | 28 | 333 | 3.2 | 4.8 | 0.00 | 1.65 | 1.65 | 78 | 1012.0 |
| 20260905215100 | 28 | 329 | 3.2 | 4.8 | 0.00 | 1.65 | 1.65 | 78 | 1012.1 |
| 20260905215004 | 28 | 336 | 3.2 | 4.8 | 0.00 | 1.65 | 1.65 | 79 | 1012.1 |
| 20260905214900 | 28 | 340 | 3.2 | 4.8 | 0.00 | 1.65 | 1.65 | 78 | 1012.0 |
| 20260905214801 | 29 | 304 | 0.0 | 4.8 | 0.00 | 1.65 | 1.65 | 78 | 1012.1 |
| 20260905214701 | 28 | 328 | 1.6 | 4.8 | 0.00 | 1.65 | 1.65 | 78 | 1012.2 |
| 20260905214601 | 28 | 348 | 4.8 | 4.8 | 0.00 | 1.65 | 1.65 | 78 | 1012.2 |
| 20260905214502 | 28 | 359 | 3.2 | 4.8 | 0.00 | 1.65 | 1.65 | 78 | 1012.2 |
| 20260905214401 | 29 | 338 | 4.8 | 4.8 | 0.00 | 1.65 | 1.65 | 78 | 1012.2 |
| 20260905214300 | 29 | 335 | 4.8 | 4.8 | 0.00 | 1.65 | 1.65 | 77 | 1012.3 |
| 20260905214200 | 28 | 4 | 4.8 | 4.8 | 0.00 | 1.65 | 1.65 | 77 | 1012.2 |
| 20260905214100 | 28 | 19 | 3.2 | 4.8 | 0.00 | 1.65 | 1.65 | 77 | 1012.1 |
| 20260905214004 | 29 | 345 | 3.2 | 4.8 | 0.00 | 1.65 | 1.65 | 77 | 1012.1 |
| 20260905213901 | 28 | 1 | 1.6 | 4.8 | 0.00 | 1.65 | 1.65 | 77 | 1012.1 |
| 20260905213801 | 28 | 343 | 1.6 | 6.4 | 0.00 | 1.65 | 1.65 | 78 | 1012.1 |
| 20260905213701 | 28 | 293 | 0.0 | 6.4 | 0.00 | 1.65 | 1.65 | 77 | 1012.1 |
| 20260905213601 | 28 | 336 | 3.2 | 6.4 | 0.00 | 1.65 | 1.65 | 77 | 1012.0 |
| 20260905213503 | 28 | 1 | 0.0 | 6.4 | 0.00 | 1.65 | 1.65 | 77 | 1012.0 |
| 20260905213400 | 28 | 325 | 0.0 | 6.4 | 0.00 | 1.65 | 1.65 | 79 | 1012.0 |
| 20260905213300 | 28 | 268 | 1.6 | 6.4 | 0.00 | 1.65 | 1.65 | 81 | 1012.1 |
| 20260905213201 | 28 | 354 | 3.2 | 6.4 | 0.00 | 1.65 | 1.65 | 81 | 1012.0 |
| 20260905213100 | 28 | 326 | 4.8 | 6.4 | 0.00 | 1.65 | 1.65 | 81 | 1012.1 |
| 20260905213003 | 28 | 347 | 4.8 | 6.4 | 0.00 | 1.65 | 1.65 | 81 | 1012.1 |
| 20260905212900 | 28 | 27 | 3.2 | 6.4 | 0.00 | 1.65 | 1.65 | 81 | 1012.1 |
| 20260905212800 | 28 | 329 | 4.8 | 6.4 | 0.00 | 1.65 | 1.65 | 81 | 1012.2 |
| 20260905212700 | 28 | 282 | 1.6 | 6.4 | 0.00 | 1.65 | 1.65 | 81 | 1012.1 |
| 20260905212600 | 28 | 336 | 0.0 | 6.4 | 0.00 | 1.65 | 1.65 | 82 | 1012.2 |
| 20260905212503 | 28 | 333 | 3.2 | 6.4 | 0.00 | 1.65 | 1.65 | 82 | 1012.2 |
| 20260905212401 | 28 | 31 | 0.0 | 6.4 | 0.00 | 1.65 | 1.65 | 82 | 1012.2 |
| 20260905212300 | 28 | 249 | 1.6 | 6.4 | 0.00 | 1.65 | 1.65 | 80 | 1012.2 |
| 20260905212200 | 28 | 297 | 6.4 | 6.4 | 0.00 | 1.65 | 1.65 | 81 | 1012.2 |
| 20260905212100 | 28 | 340 | 4.8 | 6.4 | 0.03 | 1.65 | 1.65 | 82 | 1012.1 |
| 20260905212004 | 28 | 324 | 4.8 | 6.4 | 0.03 | 1.65 | 1.65 | 81 | 1012.1 |
| 20260905211900 | 28 | 334 | 4.8 | 6.4 | 0.03 | 1.65 | 1.65 | 81 | 1012.1 |
| 20260905211801 | 28 | 335 | 6.4 | 6.4 | 0.03 | 1.65 | 1.65 | 81 | 1012.0 |
| 20260905211600 | 28 | 347 | 4.8 | 6.4 | 0.03 | 1.65 | 1.65 | 80 | 1012.1 |
| 20260905211503 | 28 | 338 | 3.2 | 6.4 | 0.03 | 1.65 | 1.65 | 80 | 1012.1 |
| 20260905211400 | 28 | 339 | 3.2 | 6.4 | 0.03 | 1.65 | 1.65 | 80 | 1012.0 |
| 20260905211301 | 28 | 359 | 3.2 | 6.4 | 0.03 | 1.65 | 1.65 | 82 | 1012.1 |
| 20260905211200 | 28 | 350 | 4.8 | 6.4 | 0.03 | 1.65 | 1.65 | 83 | 1012.0 |
| 20260905211100 | 28 | 354 | 4.8 | 6.4 | 0.05 | 1.65 | 1.65 | 82 | 1012.0 |
| 20260905211003 | 28 | 357 | 4.8 | 6.4 | 0.08 | 1.65 | 1.65 | 85 | 1012.0 |
| 20260905210901 | 28 | 356 | 4.8 | 6.4 | 0.08 | 1.65 | 1.65 | 85 | 1012.0 |
| 20260905210800 | 27 | 1 | 4.8 | 6.4 | 0.10 | 1.65 | 1.65 | 85 | 1012.1 |
| 20260905210701 | 27 | 352 | 3.2 | 6.4 | 0.10 | 1.65 | 1.65 | 86 | 1012.0 |
| 20260905210502 | 27 | 346 | 4.8 | 6.4 | 0.20 | 1.65 | 1.65 | 86 | 1011.9 |
| 20260905210400 | 27 | 335 | 4.8 | 6.4 | 0.25 | 1.65 | 1.65 | 87 | 1011.9 |
| 20260905210301 | 27 | 340 | 3.2 | 6.4 | 0.36 | 1.65 | 1.65 | 87 | 1011.8 |
| 20260905210201 | 27 | 326 | 3.2 | 6.4 | 0.51 | 1.65 | 1.65 | 88 | 1011.8 |
| 20260905210101 | 27 | 354 | 0.0 | 6.4 | 0.61 | 1.65 | 1.65 | 88 | 1011.9 |
| 20260905205901 | 27 | 326 | 3.2 | 6.4 | 0.91 | 1.65 | 1.65 | 90 | 1011.8 |
| 20260905205800 | 27 | 324 | 1.6 | 6.4 | 1.02 | 1.65 | 1.65 | 90 | 1011.8 |
| 20260905205600 | 27 | 319 | 3.2 | 6.4 | 1.24 | 1.65 | 1.65 | 91 | 1011.9 |
| 20260905205503 | 27 | 304 | 1.6 | 6.4 | 1.37 | 1.65 | 1.65 | 91 | 1011.8 |
| 20260905205400 | 27 | 302 | 0.0 | 6.4 | 1.45 | 1.65 | 1.65 | 91 | 1011.8 |
| 20260905205200 | 26 | 307 | 3.2 | 6.4 | 1.57 | 1.65 | 1.65 | 92 | 1011.9 |
| 20260905205101 | 26 | 310 | 3.2 | 6.4 | 1.57 | 1.65 | 1.65 | 92 | 1011.9 |
| 20260905205003 | 26 | 317 | 4.8 | 6.4 | 1.60 | 1.65 | 1.65 | 92 | 1012.0 |
| 20260905204900 | 26 | 302 | 4.8 | 6.4 | 1.63 | 1.65 | 1.65 | 92 | 1012.0 |
| 20260905204801 | 26 | 307 | 4.8 | 6.4 | 1.63 | 1.65 | 1.65 | 92 | 1012.0 |
| 20260905204701 | 26 | 316 | 4.8 | 6.4 | 1.65 | 1.65 | 1.65 | 92 | 1012.1 |
| 20260905204601 | 26 | 341 | 4.8 | 8.0 | 1.65 | 1.65 | 1.65 | 92 | 1012.2 |
| 20260905204504 | 26 | 299 | 4.8 | 8.0 | 1.65 | 1.65 | 1.65 | 92 | 1012.2 |
| 20260905204400 | 26 | 247 | 4.8 | 8.0 | 1.65 | 1.65 | 1.65 | 93 | 1012.2 |
| 20260905204300 | 26 | 281 | 4.8 | 8.0 | 1.65 | 1.65 | 1.65 | 91 | 1012.2 |
| 20260905204200 | 25 | 257 | 4.8 | 8.0 | 1.65 | 1.65 | 1.65 | 91 | 1012.3 |
| 20260905204100 | 25 | 274 | 4.8 | 8.0 | 1.65 | 1.65 | 1.65 | 91 | 1012.3 |
| 20260905204003 | 25 | 268 | 4.8 | 8.0 | 1.65 | 1.65 | 1.65 | 92 | 1012.3 |
| 20260905203901 | 25 | 281 | 3.2 | 8.0 | 1.65 | 1.65 | 1.65 | 91 | 1012.2 |
| 20260905203659 | 25 | 275 | 4.8 | 6.4 | 1.65 | 1.65 | 1.65 | 92 | 1012.2 |
| 20260905203601 | 25 | 278 | 1.6 | 6.4 | 1.65 | 1.65 | 1.65 | 92 | 1012.1 |
| 20260905203502 | 25 | 298 | 4.8 | 6.4 | 1.65 | 1.65 | 1.65 | 92 | 1012.1 |
| 20260905203300 | 25 | 302 | 4.8 | 6.4 | 1.65 | 1.65 | 1.65 | 92 | 1012.2 |
| 20260905203100 | 25 | 342 | 3.2 | 6.4 | 1.65 | 1.65 | 1.65 | 91 | 1012.2 |
| 20260905203004 | 25 | 333 | 4.8 | 6.4 | 1.65 | 1.65 | 1.65 | 91 | 1012.1 |
| 20260905202900 | 25 | 338 | 1.6 | 6.4 | 1.65 | 1.65 | 1.65 | 91 | 1012.2 |
| 20260905202800 | 25 | 312 | 3.2 | 6.4 | 1.65 | 1.65 | 1.65 | 91 | 1012.2 |
| 20260905202701 | 25 | 6 | 4.8 | 6.4 | 1.65 | 1.65 | 1.65 | 90 | 1012.1 |
| 20260905202600 | 25 | 359 | 4.8 | 6.4 | 1.65 | 1.65 | 1.65 | 90 | 1012.1 |
| 20260905202503 | 24 | 6 | 4.8 | 6.4 | 1.65 | 1.65 | 1.65 | 91 | 1012.2 |
| 20260905202300 | 24 | 317 | 3.2 | 6.4 | 1.65 | 1.65 | 1.65 | 90 | 1012.2 |
| 20260905202201 | 24 | 330 | 4.8 | 4.8 | 1.65 | 1.65 | 1.65 | 90 | 1012.2 |
| 20260905202101 | 24 | 345 | 3.2 | 4.8 | 1.63 | 1.63 | 1.63 | 90 | 1012.3 |
| 20260905202003 | 24 | 316 | 3.2 | 4.8 | 1.63 | 1.63 | 1.63 | 89 | 1012.3 |
| 20260905201902 | 24 | 316 | 1.6 | 4.8 | 1.63 | 1.63 | 1.63 | 89 | 1012.4 |
| 20260905201801 | 23 | 319 | 3.2 | 4.8 | 1.63 | 1.63 | 1.63 | 89 | 1012.5 |
| 20260905201700 | 24 | 302 | 3.2 | 4.8 | 1.63 | 1.63 | 1.63 | 89 | 1012.5 |
| 20260905201601 | 23 | 293 | 3.2 | 4.8 | 1.63 | 1.63 | 1.63 | 88 | 1012.5 |
| 20260905201503 | 23 | 293 | 3.2 | 4.8 | 1.63 | 1.63 | 1.63 | 88 | 1012.6 |
| 20260905201300 | 24 | 276 | 3.2 | 6.4 | 1.63 | 1.63 | 1.63 | 88 | 1012.6 |
| 20260905201200 | 24 | 253 | 4.8 | 6.4 | 1.63 | 1.63 | 1.63 | 88 | 1012.7 |
| 20260905201101 | 23 | 316 | 3.2 | 6.4 | 1.60 | 1.60 | 1.60 | 88 | 1012.7 |
| 20260905200800 | 23 | 268 | 0.0 | 8.0 | 1.55 | 1.55 | 1.55 | 87 | 1012.6 |
| 20260905200700 | 23 | 326 | 0.0 | 8.0 | 1.55 | 1.55 | 1.55 | 87 | 1012.8 |
| 20260905200601 | 23 | 309 | 0.0 | 8.0 | 1.50 | 1.50 | 1.50 | 86 | 1012.7 |
| 20260905200359 | 24 | 254 | 3.2 | 9.7 | 1.40 | 1.40 | 1.40 | 85 | 1012.8 |
| 20260905200300 | 24 | 261 | 6.4 | 9.7 | 1.30 | 1.30 | 1.30 | 85 | 1012.9 |
| 20260905200200 | 25 | 295 | 4.8 | 9.7 | 1.14 | 1.14 | 1.14 | 85 | 1012.9 |
| 20260905200101 | 25 | 295 | 4.8 | 9.7 | 1.04 | 1.04 | 1.04 | 85 | 1013.0 |
| 20260905200007 | 25 | 268 | 3.2 | 9.7 | 0.86 | 0.86 | 0.86 | 84 | 1013.0 |
| 20260905195901 | 25 | 316 | 3.2 | 9.7 | 0.74 | 0.74 | 0.74 | 84 | 1013.1 |
| 20260905195800 | 25 | 252 | 6.4 | 14.5 | 0.64 | 0.64 | 0.64 | 83 | 1013.1 |
| 20260905195701 | 25 | 295 | 3.2 | 14.5 | 0.48 | 0.48 | 0.48 | 83 | 1013.1 |
| 20260905195602 | 26 | 270 | 4.8 | 14.5 | 0.41 | 0.41 | 0.41 | 82 | 1013.1 |
| 20260905195400 | 26 | 314 | 4.8 | 14.5 | 0.15 | 0.15 | 0.15 | 82 | 1013.2 |
| 20260905195301 | 26 | 302 | 4.8 | 14.5 | 0.10 | 0.10 | 0.10 | 81 | 1013.1 |
| 20260905195201 | 26 | 295 | 6.4 | 14.5 | 0.08 | 0.08 | 0.08 | 81 | 1013.1 |
| 20260905195004 | 27 | 294 | 9.7 | 14.5 | 0.05 | 0.05 | 0.05 | 79 | 1013.2 |
| 20260905194901 | 27 | 303 | 9.7 | 14.5 | 0.03 | 0.03 | 0.03 | 79 | 1013.0 |
| 20260905194801 | 27 | 286 | 8.0 | 19.3 | 0.03 | 0.03 | 0.03 | 77 | 1013.0 |
| 20260905194701 | 27 | 265 | 11.3 | 22.5 | 0.00 | 0.00 | 0.00 | 76 | 1013.0 |
| 20260905194601 | 28 | 303 | 6.4 | 22.5 | 0.00 | 0.00 | 0.00 | 75 | 1013.0 |
| 20260905194402 | 28 | 308 | 11.3 | 22.5 | 0.00 | 0.00 | 0.00 | 73 | 1013.0 |
| 20260905194201 | 29 | 305 | 9.7 | 22.5 | 0.00 | 0.00 | 0.00 | 71 | 1013.0 |
| 20260905194101 | 30 | 307 | 6.4 | 22.5 | 0.00 | 0.00 | 0.00 | 70 | 1013.1 |
| 20260905194004 | 30 | 254 | 9.7 | 22.5 | 0.00 | 0.00 | 0.00 | 69 | 1013.1 |
| 20260905193901 | 30 | 271 | 6.4 | 22.5 | 0.00 | 0.00 | 0.00 | 68 | 1013.0 |
| 20260905193801 | 31 | 282 | 14.5 | 22.5 | 0.00 | 0.00 | 0.00 | 65 | 1013.0 |
| 20260905193701 | 31 | 270 | 6.4 | 12.9 | 0.00 | 0.00 | 0.00 | 65 | 1013.0 |
| 20260905193601 | 31 | 324 | 9.7 | 12.9 | 0.00 | 0.00 | 0.00 | 64 | 1012.9 |
| 20260905193503 | 31 | 327 | 9.7 | 12.9 | 0.00 | 0.00 | 0.00 | 64 | 1013.0 |
| 20260905193402 | 31 | 334 | 9.7 | 12.9 | 0.00 | 0.00 | 0.00 | 64 | 1013.0 |
| 20260905193301 | 31 | 338 | 8.0 | 12.9 | 0.00 | 0.00 | 0.00 | 64 | 1012.9 |
| 20260905193203 | 31 | 340 | 8.0 | 12.9 | 0.00 | 0.00 | 0.00 | 63 | 1012.9 |
| 20260905193101 | 31 | 346 | 9.7 | 12.9 | 0.00 | 0.00 | 0.00 | 63 | 1012.8 |
| 20260905193006 | 31 | 333 | 6.4 | 12.9 | 0.00 | 0.00 | 0.00 | 64 | 1012.8 |
| 20260905192901 | 31 | 335 | 8.0 | 12.9 | 0.00 | 0.00 | 0.00 | 63 | 1013.0 |
| 20260905192802 | 32 | 331 | 8.0 | 11.3 | 0.00 | 0.00 | 0.00 | 63 | 1013.0 |
| 20260905192702 | 32 | 338 | 9.7 | 11.3 | 0.00 | 0.00 | 0.00 | 63 | 1012.9 |
| 20260905192503 | 32 | 329 | 8.0 | 11.3 | 0.00 | 0.00 | 0.00 | 62 | 1013.0 |
| 20260905192402 | 32 | 321 | 8.0 | 11.3 | 0.00 | 0.00 | 0.00 | 61 | 1013.0 |
| 20260905192301 | 32 | 327 | 9.7 | 11.3 | 0.00 | 0.00 | 0.00 | 60 | 1013.2 |
| 20260905192201 | 32 | 339 | 11.3 | 12.9 | 0.00 | 0.00 | 0.00 | 60 | 1013.1 |
| 20260905192100 | 32 | 350 | 11.3 | 12.9 | 0.00 | 0.00 | 0.00 | 59 | 1013.1 |
| 20260905192004 | 32 | 4 | 8.0 | 19.3 | 0.00 | 0.00 | 0.00 | 60 | 1013.0 |
| 20260905191901 | 32 | 337 | 9.7 | 19.3 | 0.00 | 0.00 | 0.00 | 59 | 1013.0 |
| 20260905191801 | 32 | 357 | 3.2 | 19.3 | 0.00 | 0.00 | 0.00 | 59 | 1013.0 |
| 20260905191702 | 32 | 301 | 6.4 | 19.3 | 0.00 | 0.00 | 0.00 | 58 | 1013.0 |
| 20260905191602 | 33 | 310 | 9.7 | 19.3 | 0.00 | 0.00 | 0.00 | 59 | 1013.0 |
| 20260905191505 | 33 | 332 | 8.0 | 19.3 | 0.00 | 0.00 | 0.00 | 58 | 1013.1 |
| 20260905191401 | 33 | 317 | 8.0 | 19.3 | 0.00 | 0.00 | 0.00 | 59 | 1013.0 |
| 20260905191202 | 33 | 336 | 9.7 | 19.3 | 0.00 | 0.00 | 0.00 | 58 | 1013.0 |
| 20260905191100 | 33 | 351 | 17.7 | 17.7 | 0.00 | 0.00 | 0.00 | 58 | 1013.1 |
| 20260905191005 | 33 | 325 | 8.0 | 12.9 | 0.00 | 0.00 | 0.00 | 59 | 1013.1 |
| 20260905190901 | 33 | 341 | 4.8 | 12.9 | 0.00 | 0.00 | 0.00 | 58 | 1013.0 |
| 20260905190802 | 33 | 341 | 4.8 | 16.1 | 0.00 | 0.00 | 0.00 | 58 | 1013.0 |
| 20260905190701 | 33 | 334 | 8.0 | 16.1 | 0.00 | 0.00 | 0.00 | 58 | 1013.2 |
| 20260905190502 | 33 | 332 | 11.3 | 16.1 | 0.00 | 0.00 | 0.00 | 58 | 1013.2 |
| 20260905190302 | 33 | 338 | 8.0 | 16.1 | 0.00 | 0.00 | 0.00 | 57 | 1013.1 |
| 20260905190202 | 33 | 326 | 6.4 | 16.1 | 0.00 | 0.00 | 0.00 | 57 | 1013.1 |
| 20260905190004 | 33 | 8 | 8.0 | 16.1 | 0.00 | 0.00 | 0.00 | 57 | 1013.1 |
| 20260905185903 | 33 | 353 | 9.7 | 16.1 | 0.00 | 0.00 | 0.00 | 57 | 1013.1 |
| 20260905185801 | 33 | 340 | 8.0 | 12.9 | 0.00 | 0.00 | 0.00 | 58 | 1013.2 |
| 20260905185702 | 33 | 1 | 9.7 | 12.9 | 0.00 | 0.00 | 0.00 | 58 | 1013.2 |
| 20260905185602 | 33 | 340 | 9.7 | 11.3 | 0.00 | 0.00 | 0.00 | 61 | 1013.2 |
| 20260905185503 | 33 | 2 | 6.4 | 11.3 | 0.00 | 0.00 | 0.00 | 58 | 1013.2 |
| 20260905185401 | 33 | 331 | 4.8 | 11.3 | 0.00 | 0.00 | 0.00 | 60 | 1013.2 |
| 20260905185301 | 33 | 336 | 8.0 | 11.3 | 0.00 | 0.00 | 0.00 | 60 | 1013.3 |
| 20260905185202 | 33 | 4 | 9.7 | 11.3 | 0.00 | 0.00 | 0.00 | 62 | 1013.2 |
| 20260905185102 | 33 | 347 | 8.0 | 11.3 | 0.00 | 0.00 | 0.00 | 61 | 1013.1 |
| 20260905184902 | 33 | 342 | 6.4 | 9.7 | 0.00 | 0.00 | 0.00 | 62 | 1013.1 |
| 20260905184801 | 32 | 348 | 6.4 | 9.7 | 0.00 | 0.00 | 0.00 | 63 | 1013.1 |
| 20260905184701 | 32 | 5 | 9.7 | 9.7 | 0.00 | 0.00 | 0.00 | 64 | 1013.0 |
| 20260905184602 | 32 | 6 | 8.0 | 9.7 | 0.00 | 0.00 | 0.00 | 63 | 1013.1 |
| 20260905184402 | 32 | 1 | 0.0 | 8.0 | 0.00 | 0.00 | 0.00 | 65 | 1012.9 |
| 20260905184203 | 31 | 296 | 3.2 | 11.3 | 0.00 | 0.00 | 0.00 | 66 | 1013.1 |
| 20260905184102 | 31 | 338 | 4.8 | 11.3 | 0.00 | 0.00 | 0.00 | 66 | 1013.0 |
| 20260905184004 | 31 | 359 | 0.0 | 11.3 | 0.00 | 0.00 | 0.00 | 66 | 1013.1 |
| 20260905183901 | 31 | 338 | 0.0 | 11.3 | 0.00 | 0.00 | 0.00 | 66 | 1013.1 |
| 20260905183703 | 31 | 323 | 4.8 | 11.3 | 0.00 | 0.00 | 0.00 | 67 | 1013.1 |
| 20260905183504 | 31 | 356 | 6.4 | 11.3 | 0.00 | 0.00 | 0.00 | 68 | 1013.0 |
| 20260905183401 | 31 | 355 | 8.0 | 11.3 | 0.00 | 0.00 | 0.00 | 72 | 1013.1 |
| 20260905183301 | 31 | 338 | 4.8 | 6.4 | 0.00 | 0.00 | 0.00 | 71 | 1013.1 |
| 20260905183101 | 30 | 43 | 0.0 | 6.4 | 0.00 | 0.00 | 0.00 | 73 | 1013.2 |
| 20260905183005 | 30 | 338 | 1.6 | 6.4 | 0.00 | 0.00 | 0.00 | 72 | 1013.2 |
| 20260905182901 | 30 | 67 | 0.0 | 6.4 | 0.00 | 0.00 | 0.00 | 72 | 1013.3 |
| 20260905182802 | 30 | 355 | 3.2 | 6.4 | 0.00 | 0.00 | 0.00 | 75 | 1013.2 |
| 20260905182702 | 30 | 342 | 4.8 | 6.4 | 0.00 | 0.00 | 0.00 | 75 | 1013.4 |
| 20260905182504 | 29 | 1 | 1.6 | 6.4 | 0.00 | 0.00 | 0.00 | 75 | 1013.4 |
| 20260905182402 | 29 | 298 | 0.0 | 6.4 | 0.00 | 0.00 | 0.00 | 77 | 1013.4 |
| 20260905182301 | 29 | 304 | 1.6 | 6.4 | 0.00 | 0.00 | 0.00 | 77 | 1013.4 |
| 20260905182201 | 29 | 328 | 4.8 | 6.4 | 0.00 | 0.00 | 0.00 | 77 | 1013.5 |
| 20260905181900 | 29 | 326 | 3.2 | 8.0 | 0.00 | 0.00 | 0.00 | 77 | 1013.4 |
| 20260905181802 | 29 | 340 | 4.8 | 8.0 | 0.00 | 0.00 | 0.00 | 76 | 1013.4 |
| 20260905181602 | 29 | 338 | 6.4 | 8.0 | 0.00 | 0.00 | 0.00 | 74 | 1013.4 |
| 20260905181402 | 30 | 325 | 4.8 | 8.0 | 0.00 | 0.00 | 0.00 | 73 | 1013.4 |
| 20260905181301 | 30 | 331 | 6.4 | 8.0 | 0.00 | 0.00 | 0.00 | 72 | 1013.3 |
| 20260905181201 | 31 | 351 | 6.4 | 8.0 | 0.00 | 0.00 | 0.00 | 70 | 1013.3 |
| 20260905181101 | 31 | 12 | 8.0 | 8.0 | 0.00 | 0.00 | 0.00 | 68 | 1013.4 |
| 20260905181004 | 31 | 341 | 3.2 | 11.3 | 0.00 | 0.00 | 0.00 | 68 | 1013.4 |
| 20260905180901 | 31 | 355 | 8.0 | 11.3 | 0.00 | 0.00 | 0.00 | 69 | 1013.5 |
| 20260905180803 | 31 | 350 | 3.2 | 11.3 | 0.00 | 0.00 | 0.00 | 68 | 1013.5 |
| 20260905180701 | 31 | 338 | 6.4 | 11.3 | 0.00 | 0.00 | 0.00 | 66 | 1013.5 |
| 20260905180602 | 31 | 338 | 4.8 | 11.3 | 0.00 | 0.00 | 0.00 | 66 | 1013.5 |
| 20260905180403 | 32 | 330 | 4.8 | 11.3 | 0.00 | 0.00 | 0.00 | 65 | 1013.5 |
| 20260905180302 | 32 | 339 | 4.8 | 11.3 | 0.00 | 0.00 | 0.00 | 67 | 1013.5 |
| 20260905180201 | 32 | 355 | 6.4 | 11.3 | 0.00 | 0.00 | 0.00 | 67 | 1013.4 |
| 20260905175800 | 31 | 350 | 3.2 | 8.0 | 0.00 | 0.00 | 0.00 | 69 | 1013.6 |
| 20260905175701 | 31 | 348 | 4.8 | 8.0 | 0.00 | 0.00 | 0.00 | 70 | 1013.7 |
| 20260905175503 | 31 | 114 | 6.4 | 8.0 | 0.00 | 0.00 | 0.00 | 70 | 1013.7 |
| 20260905175401 | 31 | 51 | 3.2 | 8.0 | 0.00 | 0.00 | 0.00 | 72 | 1013.8 |
| 20260905175300 | 31 | 360 | 4.8 | 9.7 | 0.00 | 0.00 | 0.00 | 72 | 1013.8 |
| 20260905175203 | 30 | 41 | 1.6 | 9.7 | 0.00 | 0.00 | 0.00 | 72 | 1013.8 |
| 20260905175100 | 30 | 105 | 4.8 | 9.7 | 0.00 | 0.00 | 0.00 | 72 | 1013.9 |
| 20260905175004 | 31 | 53 | 3.2 | 9.7 | 0.00 | 0.00 | 0.00 | 72 | 1013.9 |
| 20260905174801 | 31 | 89 | 4.8 | 9.7 | 0.00 | 0.00 | 0.00 | 73 | 1014.1 |
| 20260905174701 | 30 | 325 | 6.4 | 9.7 | 0.00 | 0.00 | 0.00 | 74 | 1014.0 |
| 20260905174600 | 30 | 303 | 3.2 | 9.7 | 0.00 | 0.00 | 0.00 | 74 | 1014.0 |
| 20260905174504 | 30 | 327 | 1.6 | 9.7 | 0.00 | 0.00 | 0.00 | 74 | 1014.0 |
| 20260905174402 | 30 | 354 | 3.2 | 9.7 | 0.00 | 0.00 | 0.00 | 74 | 1014.0 |
| 20260905174301 | 30 | 110 | 4.8 | 8.0 | 0.00 | 0.00 | 0.00 | 75 | 1014.1 |
| 20260905174200 | 30 | 133 | 0.0 | 8.0 | 0.00 | 0.00 | 0.00 | 75 | 1013.9 |
| 20260905174100 | 30 | 4 | 4.8 | 8.0 | 0.00 | 0.00 | 0.00 | 76 | 1014.1 |
| 20260905174004 | 30 | 326 | 3.2 | 8.0 | 0.00 | 0.00 | 0.00 | 76 | 1014.0 |
| 20260905173901 | 30 | 13 | 0.0 | 8.0 | 0.00 | 0.00 | 0.00 | 76 | 1014.1 |
| 20260905173800 | 29 | 8 | 4.8 | 6.4 | 0.00 | 0.00 | 0.00 | 76 | 1014.1 |
| 20260905173700 | 29 | 108 | 3.2 | 6.4 | 0.00 | 0.00 | 0.00 | 76 | 1014.0 |
| 20260905173601 | 29 | 54 | 1.6 | 6.4 | 0.00 | 0.00 | 0.00 | 76 | 1014.0 |
| 20260905173401 | 30 | 15 | 1.6 | 6.4 | 0.00 | 0.00 | 0.00 | 76 | 1014.1 |
| 20260905173300 | 29 | 354 | 6.4 | 6.4 | 0.00 | 0.00 | 0.00 | 77 | 1014.2 |
| 20260905173201 | 29 | 95 | 3.2 | 6.4 | 0.00 | 0.00 | 0.00 | 77 | 1014.2 |
| 20260905173100 | 29 | 36 | 3.2 | 4.8 | 0.00 | 0.00 | 0.00 | 77 | 1014.4 |
| 20260905173004 | 29 | 331 | 1.6 | 4.8 | 0.00 | 0.00 | 0.00 | 78 | 1014.2 |
| 20260905172900 | 29 | 5 | 4.8 | 6.4 | 0.00 | 0.00 | 0.00 | 78 | 1014.3 |
| 20260905172800 | 29 | 263 | 3.2 | 6.4 | 0.00 | 0.00 | 0.00 | 78 | 1014.3 |
| 20260905172700 | 28 | 352 | 0.0 | 6.4 | 0.00 | 0.00 | 0.00 | 78 | 1014.3 |
| 20260905172600 | 28 | 291 | 3.2 | 6.4 | 0.00 | 0.00 | 0.00 | 78 | 1014.3 |
| 20260905172503 | 28 | 359 | 4.8 | 6.4 | 0.00 | 0.00 | 0.00 | 77 | 1014.2 |
| 20260905172300 | 28 | 303 | 3.2 | 6.4 | 0.00 | 0.00 | 0.00 | 77 | 1014.2 |
| 20260905172200 | 29 | 316 | 0.0 | 6.4 | 0.00 | 0.00 | 0.00 | 77 | 1014.3 |
| 20260905172100 | 29 | 39 | 0.0 | 6.4 | 0.00 | 0.00 | 0.00 | 77 | 1014.2 |
| 20260905172004 | 29 | 334 | 3.2 | 4.8 | 0.00 | 0.00 | 0.00 | 77 | 1014.3 |
| 20260905171901 | 29 | 328 | 1.6 | 4.8 | 0.00 | 0.00 | 0.00 | 77 | 1014.3 |
| 20260905171801 | 29 | 309 | 1.6 | 4.8 | 0.00 | 0.00 | 0.00 | 77 | 1014.3 |
| 20260905171701 | 29 | 1 | 4.8 | 4.8 | 0.00 | 0.00 | 0.00 | 77 | 1014.3 |
| 20260905171600 | 29 | 11 | 3.2 | 4.8 | 0.00 | 0.00 | 0.00 | 77 | 1014.3 |
| 20260905171504 | 29 | 15 | 1.6 | 4.8 | 0.00 | 0.00 | 0.00 | 77 | 1014.3 |
| 20260905171400 | 29 | 345 | 1.6 | 4.8 | 0.00 | 0.00 | 0.00 | 77 | 1014.3 |
| 20260905171259 | 29 | 330 | 0.0 | 4.8 | 0.00 | 0.00 | 0.00 | 77 | 1014.3 |
| 20260905171100 | 29 | 347 | 0.0 | 4.8 | 0.00 | 0.00 | 0.00 | 77 | 1014.3 |
| 20260905171004 | 29 | 70 | 0.0 | 4.8 | 0.00 | 0.00 | 0.00 | 77 | 1014.3 |
| 20260905170901 | 29 | 316 | 0.0 | 6.4 | 0.00 | 0.00 | 0.00 | 77 | 1014.3 |
| 20260905170800 | 29 | 307 | 0.0 | 6.4 | 0.00 | 0.00 | 0.00 | 77 | 1014.3 |
| 20260905170502 | 29 | 17 | 0.0 | 6.4 | 0.00 | 0.00 | 0.00 | 77 | 1014.4 |
| 20260905170400 | 29 | 322 | 0.0 | 6.4 | 0.00 | 0.00 | 0.00 | 77 | 1014.4 |
| 20260905170300 | 29 | 239 | 3.2 | 6.4 | 0.00 | 0.00 | 0.00 | 77 | 1014.4 |
| 20260905170202 | 29 | 27 | 1.6 | 6.4 | 0.00 | 0.00 | 0.00 | 77 | 1014.5 |
| 20260905170059 | 29 | 34 | 0.0 | 6.4 | 0.00 | 0.00 | 0.00 | 77 | 1014.5 |
| 20260905170004 | 29 | 113 | 0.0 | 6.4 | 0.00 | 0.00 | 0.00 | 77 | 1014.5 |
| 20260905165900 | 29 | 359 | 1.6 | 6.4 | 0.00 | 0.00 | 0.00 | 77 | 1014.5 |
| 20260905165600 | 29 | 1 | 3.2 | 6.4 | 0.00 | 0.00 | 0.00 | 77 | 1014.5 |
| 20260905165503 | 29 | 352 | 3.2 | 6.4 | 0.00 | 0.00 | 0.00 | 77 | 1014.6 |
| 20260905165400 | 29 | 49 | 3.2 | 6.4 | 0.00 | 0.00 | 0.00 | 77 | 1014.6 |
| 20260905165301 | 29 | 297 | 3.2 | 6.4 | 0.00 | 0.00 | 0.00 | 76 | 1014.5 |
| 20260905165200 | 29 | 336 | 0.0 | 6.4 | 0.00 | 0.00 | 0.00 | 76 | 1014.5 |
| 20260905165100 | 30 | 39 | 3.2 | 6.4 | 0.00 | 0.00 | 0.00 | 75 | 1014.6 |
| 20260905165003 | 30 | 346 | 4.8 | 6.4 | 0.00 | 0.00 | 0.00 | 75 | 1014.5 |
| 20260905164900 | 29 | 109 | 0.0 | 6.4 | 0.00 | 0.00 | 0.00 | 73 | 1014.5 |
| 20260905164800 | 29 | 32 | 0.0 | 6.4 | 0.00 | 0.00 | 0.00 | 70 | 1014.6 |
| 20260905164700 | 29 | 6 | 0.0 | 6.4 | 0.00 | 0.00 | 0.00 | 71 | 1014.6 |
| 20260905164600 | 29 | 347 | 3.2 | 6.4 | 0.00 | 0.00 | 0.00 | 71 | 1014.5 |
| 20260905164504 | 29 | 321 | 4.8 | 6.4 | 0.00 | 0.00 | 0.00 | 71 | 1014.6 |
| 20260905164400 | 29 | 323 | 4.8 | 6.4 | 0.00 | 0.00 | 0.00 | 71 | 1014.6 |
| 20260905164300 | 29 | 331 | 4.8 | 6.4 | 0.00 | 0.00 | 0.00 | 71 | 1014.6 |
| 20260905164201 | 29 | 340 | 4.8 | 6.4 | 0.00 | 0.00 | 0.00 | 71 | 1014.7 |
| 20260905164100 | 29 | 352 | 4.8 | 6.4 | 0.00 | 0.00 | 0.00 | 71 | 1014.7 |
| 20260905164004 | 29 | 355 | 0.0 | 6.4 | 0.00 | 0.00 | 0.00 | 71 | 1014.8 |
| 20260905163901 | 29 | 340 | 1.6 | 6.4 | 0.00 | 0.00 | 0.00 | 71 | 1014.8 |
| 20260905163701 | 29 | 325 | 3.2 | 8.0 | 0.00 | 0.00 | 0.00 | 72 | 1014.9 |
| 20260905163600 | 29 | 330 | 3.2 | 9.7 | 0.00 | 0.00 | 0.00 | 72 | 1014.8 |
| 20260905163503 | 29 | 327 | 4.8 | 9.7 | 0.00 | 0.00 | 0.00 | 72 | 1014.7 |
| 20260905163401 | 29 | 305 | 4.8 | 9.7 | 0.00 | 0.00 | 0.00 | 72 | 1014.8 |
| 20260905163300 | 29 | 357 | 4.8 | 9.7 | 0.00 | 0.00 | 0.00 | 72 | 1014.8 |
| 20260905163100 | 29 | 335 | 4.8 | 9.7 | 0.00 | 0.00 | 0.00 | 72 | 1014.9 |
| 20260905162902 | 29 | 333 | 4.8 | 9.7 | 0.00 | 0.00 | 0.00 | 72 | 1014.7 |
| 20260905162800 | 29 | 338 | 6.4 | 9.7 | 0.00 | 0.00 | 0.00 | 71 | 1014.8 |
| 20260905162600 | 29 | 354 | 4.8 | 12.9 | 0.00 | 0.00 | 0.00 | 72 | 1014.9 |
| 20260905162503 | 29 | 328 | 6.4 | 12.9 | 0.00 | 0.00 | 0.00 | 72 | 1014.8 |
| 20260905162359 | 29 | 340 | 8.0 | 12.9 | 0.00 | 0.00 | 0.00 | 72 | 1014.9 |
| 20260905162300 | 30 | 335 | 4.8 | 12.9 | 0.00 | 0.00 | 0.00 | 71 | 1014.8 |
| 20260905162059 | 30 | 335 | 8.0 | 12.9 | 0.00 | 0.00 | 0.00 | 71 | 1014.8 |
| 20260905162003 | 30 | 326 | 6.4 | 12.9 | 0.00 | 0.00 | 0.00 | 71 | 1014.9 |
| 20260905161900 | 30 | 350 | 8.0 | 12.9 | 0.00 | 0.00 | 0.00 | 70 | 1014.8 |
| 20260905161801 | 30 | 360 | 8.0 | 12.9 | 0.00 | 0.00 | 0.00 | 71 | 1014.8 |
| 20260905161659 | 30 | 1 | 9.7 | 11.3 | 0.00 | 0.00 | 0.00 | 71 | 1014.8 |
| 20260905161601 | 30 | 327 | 6.4 | 11.3 | 0.00 | 0.00 | 0.00 | 71 | 1014.8 |
| 20260905161401 | 30 | 335 | 4.8 | 11.3 | 0.00 | 0.00 | 0.00 | 71 | 1014.8 |
| 20260905161100 | 30 | 5 | 4.8 | 12.9 | 0.00 | 0.00 | 0.00 | 70 | 1014.8 |
| 20260905161004 | 30 | 310 | 3.2 | 12.9 | 0.00 | 0.00 | 0.00 | 70 | 1014.8 |
| 20260905160900 | 30 | 330 | 4.8 | 12.9 | 0.00 | 0.00 | 0.00 | 70 | 1014.9 |
| 20260905160801 | 30 | 339 | 11.3 | 12.9 | 0.00 | 0.00 | 0.00 | 70 | 1014.9 |
| 20260905160700 | 30 | 333 | 6.4 | 12.9 | 0.00 | 0.00 | 0.00 | 71 | 1014.8 |
| 20260905160600 | 30 | 347 | 8.0 | 12.9 | 0.00 | 0.00 | 0.00 | 72 | 1014.8 |
| 20260905160401 | 30 | 340 | 4.8 | 12.9 | 0.00 | 0.00 | 0.00 | 72 | 1014.9 |
| 20260905160300 | 30 | 340 | 6.4 | 8.0 | 0.00 | 0.00 | 0.00 | 74 | 1015.0 |
| 20260905160100 | 29 | 333 | 3.2 | 8.0 | 0.00 | 0.00 | 0.00 | 74 | 1014.9 |
| 20260905155859 | 29 | 17 | 6.4 | 8.0 | 0.00 | 0.00 | 0.00 | 75 | 1015.0 |
| 20260905155800 | 29 | 333 | 4.8 | 8.0 | 0.00 | 0.00 | 0.00 | 75 | 1014.9 |
| 20260905155700 | 28 | 6 | 6.4 | 8.0 | 0.00 | 0.00 | 0.00 | 75 | 1014.9 |
| 20260905155600 | 28 | 6 | 3.2 | 8.0 | 0.00 | 0.00 | 0.00 | 75 | 1014.9 |
| 20260905155503 | 28 | 330 | 4.8 | 8.0 | 0.00 | 0.00 | 0.00 | 75 | 1014.9 |
| 20260905155400 | 28 | 316 | 6.4 | 8.0 | 0.00 | 0.00 | 0.00 | 74 | 1014.8 |
| 20260905155300 | 28 | 325 | 6.4 | 8.0 | 0.00 | 0.00 | 0.00 | 75 | 1014.8 |
| 20260905155200 | 28 | 338 | 4.8 | 8.0 | 0.00 | 0.00 | 0.00 | 74 | 1014.9 |
| 20260905155004 | 28 | 18 | 6.4 | 8.0 | 0.00 | 0.00 | 0.00 | 75 | 1014.9 |
| 20260905154901 | 28 | 341 | 3.2 | 8.0 | 0.00 | 0.00 | 0.00 | 75 | 1014.9 |
| 20260905154800 | 28 | 328 | 4.8 | 8.0 | 0.00 | 0.00 | 0.00 | 74 | 1014.8 |
| 20260905154659 | 28 | 341 | 4.8 | 6.4 | 0.00 | 0.00 | 0.00 | 75 | 1014.9 |
| 20260905154504 | 28 | 331 | 3.2 | 6.4 | 0.00 | 0.00 | 0.00 | 75 | 1014.9 |
| 20260905154401 | 28 | 340 | 3.2 | 6.4 | 0.00 | 0.00 | 0.00 | 75 | 1014.8 |
| 20260905154300 | 28 | 334 | 4.8 | 6.4 | 0.00 | 0.00 | 0.00 | 75 | 1014.8 |
| 20260905154200 | 28 | 4 | 4.8 | 6.4 | 0.00 | 0.00 | 0.00 | 76 | 1014.8 |
| 20260905154101 | 28 | 336 | 3.2 | 6.4 | 0.00 | 0.00 | 0.00 | 76 | 1014.8 |
| 20260905153900 | 28 | 343 | 4.8 | 4.8 | 0.00 | 0.00 | 0.00 | 76 | 1014.8 |
| 20260905153800 | 28 | 321 | 3.2 | 4.8 | 0.00 | 0.00 | 0.00 | 76 | 1014.8 |
| 20260905153503 | 28 | 309 | 3.2 | 4.8 | 0.00 | 0.00 | 0.00 | 76 | 1014.9 |
| 20260905153400 | 28 | 296 | 0.0 | 4.8 | 0.00 | 0.00 | 0.00 | 76 | 1015.0 |
| 20260905153300 | 28 | 272 | 0.0 | 4.8 | 0.00 | 0.00 | 0.00 | 75 | 1015.0 |
| 20260905153200 | 28 | 315 | 0.0 | 4.8 | 0.00 | 0.00 | 0.00 | 75 | 1015.1 |
| 20260905153059 | 28 | 305 | 0.0 | 4.8 | 0.00 | 0.00 | 0.00 | 75 | 1015.1 |
| 20260905153004 | 28 | 285 | 0.0 | 4.8 | 0.00 | 0.00 | 0.00 | 75 | 1015.1 |
| 20260905152800 | 28 | 311 | 0.0 | 4.8 | 0.00 | 0.00 | 0.00 | 75 | 1015.2 |
| 20260905152600 | 28 | 301 | 1.6 | 4.8 | 0.00 | 0.00 | 0.00 | 75 | 1015.1 |
| 20260905152503 | 28 | 343 | 0.0 | 4.8 | 0.00 | 0.00 | 0.00 | 76 | 1015.2 |
| 20260905152400 | 28 | 331 | 1.6 | 6.4 | 0.00 | 0.00 | 0.00 | 77 | 1015.1 |
| 20260905152301 | 28 | 335 | 0.0 | 6.4 | 0.00 | 0.00 | 0.00 | 77 | 1015.2 |
| 20260905152201 | 28 | 354 | 0.0 | 6.4 | 0.00 | 0.00 | 0.00 | 77 | 1015.1 |
| 20260905151900 | 28 | 326 | 3.2 | 6.4 | 0.00 | 0.00 | 0.00 | 77 | 1015.0 |
| 20260905151800 | 28 | 289 | 4.8 | 6.4 | 0.00 | 0.00 | 0.00 | 76 | 1015.1 |
| 20260905151700 | 28 | 308 | 3.2 | 6.4 | 0.00 | 0.00 | 0.00 | 76 | 1015.1 |
| 20260905151601 | 28 | 292 | 0.0 | 6.4 | 0.00 | 0.00 | 0.00 | 76 | 1015.1 |
| 20260905151503 | 28 | 350 | 3.2 | 6.4 | 0.00 | 0.00 | 0.00 | 76 | 1015.1 |
| 20260905151401 | 28 | 317 | 4.8 | 6.4 | 0.00 | 0.00 | 0.00 | 77 | 1015.1 |
| 20260905151200 | 28 | 229 | 0.0 | 6.4 | 0.00 | 0.00 | 0.00 | 77 | 1015.1 |
| 20260905151002 | 28 | 310 | 3.2 | 6.4 | 0.00 | 0.00 | 0.00 | 77 | 1015.0 |
| 20260905150900 | 28 | 338 | 3.2 | 6.4 | 0.00 | 0.00 | 0.00 | 77 | 1015.0 |
| 20260905150801 | 28 | 333 | 1.6 | 6.4 | 0.00 | 0.00 | 0.00 | 78 | 1015.0 |